Time,TemperatureF,DewpointF,PressureIn,WindDirection,WindDirectionDegrees,WindSpeedMPH,WindSpeedGustMPH,Humidity,HourlyPrecipIn,Conditions,Clouds,dailyrainin,SoftwareType,DateUTC
2013-01-12 00:00:00,38.6,36.7,30.10,North,0,0.9,0.9,93,0.09,,,0.37,WUHU216HW,2013-01-12 05:00:00,
2013-01-12 00:01:00,38.6,37.0,30.10,North,0,0.4,0.9,94,0.08,,,0.00,WUHU216HW,2013-01-12 05:01:00,
2013-01-12 00:02:00,38.6,37.0,30.10,North,0,0.0,0.9,94,0.08,,,0.00,WUHU216HW,2013-01-12 05:02:00,
2013-01-12 00:03:00,38.6,37.0,30.10,North,0,0.0,0.9,94,0.08,,,0.00,WUHU216HW,2013-01-12 05:03:00,
2013-01-12 00:05:00,38.6,36.7,30.10,North,0,0.0,0.9,93,0.08,,,0.00,WUHU216HW,2013-01-12 05:05:00,
2013-01-12 00:06:00,38.8,36.9,30.10,North,0,0.0,0.9,93,0.08,,,0.00,WUHU216HW,2013-01-12 05:06:00,
2013-01-12 00:07:00,38.8,36.9,30.10,North,0,0.0,0.9,93,0.08,,,0.00,WUHU216HW,2013-01-12 05:07:00,
2013-01-12 00:08:00,38.8,36.9,30.09,North,0,0.0,0.9,93,0.07,,,0.00,WUHU216HW,2013-01-12 05:08:00,
2013-01-12 00:10:00,38.8,37.2,30.09,North,0,0.0,0.0,94,0.07,,,0.00,WUHU216HW,2013-01-12 05:10:00,
2013-01-12 00:11:00,38.8,36.9,30.09,North,0,0.2,0.2,93,0.06,,,0.00,WUHU216HW,2013-01-12 05:11:00,
2013-01-12 00:12:00,38.8,36.9,30.09,North,0,0.0,0.2,93,0.06,,,0.00,WUHU216HW,2013-01-12 05:12:00,
2013-01-12 00:13:00,39.0,37.1,30.09,North,0,0.0,0.2,93,0.05,,,0.00,WUHU216HW,2013-01-12 05:13:00,
2013-01-12 00:15:00,39.0,37.4,30.09,North,0,0.7,0.7,94,0.05,,,0.00,WUHU216HW,2013-01-12 05:15:00,
2013-01-12 00:16:00,39.0,37.4,30.09,NNE,23,1.1,1.1,94,0.04,,,0.00,WUHU216HW,2013-01-12 05:16:00,
2013-01-12 00:17:00,39.0,37.4,30.09,NNE,23,1.8,1.8,94,0.05,,,0.01,WUHU216HW,2013-01-12 05:17:00,
2013-01-12 00:18:00,39.0,37.1,30.09,NNE,23,1.1,1.8,93,0.05,,,0.01,WUHU216HW,2013-01-12 05:18:00,
2013-01-12 00:20:00,39.1,37.2,30.09,NNE,23,1.1,1.8,93,0.05,,,0.01,WUHU216HW,2013-01-12 05:20:00,
2013-01-12 00:21:00,39.3,37.4,30.08,NNE,23,1.3,1.8,93,0.04,,,0.01,WUHU216HW,2013-01-12 05:21:00,
2013-01-12 00:22:00,39.3,37.4,30.08,NNE,23,0.4,1.8,93,0.01,,,0.01,WUHU216HW,2013-01-12 05:22:00,
2013-01-12 00:23:00,39.3,37.7,30.08,NNE,23,1.1,1.8,94,0.01,,,0.01,WUHU216HW,2013-01-12 05:23:00,
2013-01-12 00:25:00,39.3,37.4,30.08,NNE,23,1.1,1.8,93,0.01,,,0.01,WUHU216HW,2013-01-12 05:25:00,
2013-01-12 00:27:00,39.5,37.9,30.08,North,0,0.4,1.8,94,0.01,,,0.01,WUHU216HW,2013-01-12 05:27:00,
2013-01-12 00:28:00,39.5,37.9,30.08,North,0,0.9,1.3,94,0.01,,,0.01,WUHU216HW,2013-01-12 05:28:00,
2013-01-12 00:31:00,39.5,37.9,30.09,North,0,1.1,1.3,94,0.01,,,0.01,WUHU216HW,2013-01-12 05:31:00,
2013-01-12 00:32:00,39.5,37.9,30.08,NNW,338,1.8,1.8,94,0.01,,,0.01,WUHU216HW,2013-01-12 05:32:00,
2013-01-12 00:33:00,39.5,37.9,30.09,NNW,338,1.1,1.8,94,0.01,,,0.01,WUHU216HW,2013-01-12 05:33:00,
2013-01-12 00:36:00,39.5,37.6,30.09,NNW,338,1.1,1.8,93,0.01,,,0.01,WUHU216HW,2013-01-12 05:36:00,
2013-01-12 00:37:00,39.5,37.9,30.09,NNW,338,1.3,1.8,94,0.01,,,0.01,WUHU216HW,2013-01-12 05:37:00,
2013-01-12 00:38:00,39.3,37.7,30.09,North,0,0.9,1.8,94,0.01,,,0.01,WUHU216HW,2013-01-12 05:38:00,
2013-01-12 00:41:00,39.3,37.4,30.09,North,0,1.8,1.8,93,0.01,,,0.01,WUHU216HW,2013-01-12 05:41:00,
2013-01-12 00:42:00,39.3,37.4,30.09,North,0,1.8,1.8,93,0.01,,,0.01,WUHU216HW,2013-01-12 05:42:00,
2013-01-12 00:43:00,39.3,37.4,30.09,North,0,0.7,1.8,93,0.01,,,0.01,WUHU216HW,2013-01-12 05:43:00,
2013-01-12 00:46:00,39.5,37.6,30.09,North,0,1.1,1.8,93,0.01,,,0.01,WUHU216HW,2013-01-12 05:46:00,
2013-01-12 00:47:00,39.5,37.6,30.09,North,0,1.3,1.8,93,0.01,,,0.01,WUHU216HW,2013-01-12 05:47:00,
2013-01-12 00:48:00,39.5,37.6,30.09,North,0,1.1,1.8,93,0.01,,,0.01,WUHU216HW,2013-01-12 05:48:00,
2013-01-12 00:51:00,39.7,37.8,30.09,North,0,0.9,1.8,93,0.01,,,0.01,WUHU216HW,2013-01-12 05:51:00,
2013-01-12 00:52:00,39.7,37.8,30.09,North,0,1.3,1.8,93,0.02,,,0.02,WUHU216HW,2013-01-12 05:52:00,
2013-01-12 00:53:00,39.7,38.1,30.09,NNW,338,2.0,2.0,94,0.02,,,0.02,WUHU216HW,2013-01-12 05:53:00,
2013-01-12 00:54:00,39.9,38.0,30.09,NNW,338,1.3,2.0,93,0.02,,,0.02,WUHU216HW,2013-01-12 05:54:00,
2013-01-12 00:56:00,39.9,38.3,30.08,North,0,1.1,2.0,94,0.02,,,0.02,WUHU216HW,2013-01-12 05:56:00,
2013-01-12 00:57:00,39.9,38.3,30.08,North,0,1.1,2.0,94,0.02,,,0.02,WUHU216HW,2013-01-12 05:57:00,
2013-01-12 00:58:00,39.9,38.0,30.09,NNW,338,0.7,2.0,93,0.02,,,0.02,WUHU216HW,2013-01-12 05:58:00,
2013-01-12 00:59:00,39.9,38.0,30.08,North,0,0.7,2.0,93,0.02,,,0.02,WUHU216HW,2013-01-12 05:59:00,
2013-01-12 01:01:00,40.0,38.1,30.09,North,0,0.7,2.0,93,0.02,,,0.02,WUHU216HW,2013-01-12 06:01:00,
2013-01-12 01:02:00,40.0,38.4,30.09,North,0,0.7,2.0,94,0.02,,,0.02,WUHU216HW,2013-01-12 06:02:00,
2013-01-12 01:03:00,40.0,38.1,30.09,North,0,0.7,1.3,93,0.02,,,0.02,WUHU216HW,2013-01-12 06:03:00,
2013-01-12 01:04:00,40.0,38.1,30.09,North,0,0.7,1.3,93,0.02,,,0.02,WUHU216HW,2013-01-12 06:04:00,
2013-01-12 01:06:00,40.0,38.1,30.08,North,0,1.1,1.3,93,0.02,,,0.02,WUHU216HW,2013-01-12 06:06:00,
2013-01-12 01:07:00,40.0,38.1,30.09,North,0,1.1,1.3,93,0.02,,,0.02,WUHU216HW,2013-01-12 06:07:00,
2013-01-12 01:08:00,40.0,38.1,30.09,North,0,1.1,1.3,93,0.02,,,0.02,WUHU216HW,2013-01-12 06:08:00,
2013-01-12 01:09:00,40.0,38.4,30.09,North,0,1.8,1.8,94,0.02,,,0.02,WUHU216HW,2013-01-12 06:09:00,
2013-01-12 01:11:00,40.0,38.4,30.08,NNE,23,1.8,1.8,94,0.02,,,0.02,WUHU216HW,2013-01-12 06:11:00,
2013-01-12 01:13:00,40.0,38.4,30.08,NNE,23,1.8,1.8,94,0.02,,,0.02,WUHU216HW,2013-01-12 06:13:00,
2013-01-12 01:14:00,40.0,38.1,30.09,North,0,2.5,2.5,93,0.02,,,0.02,WUHU216HW,2013-01-12 06:14:00,
2013-01-12 01:16:00,40.2,38.3,30.08,North,0,1.3,2.5,93,0.02,,,0.03,WUHU216HW,2013-01-12 06:16:00,
2013-01-12 01:18:00,40.2,38.3,30.08,North,0,1.3,2.5,93,0.02,,,0.03,WUHU216HW,2013-01-12 06:18:00,
2013-01-12 01:19:00,40.2,38.3,30.08,North,0,1.6,2.5,93,0.02,,,0.03,WUHU216HW,2013-01-12 06:19:00,
2013-01-12 01:21:00,40.2,38.3,30.09,North,0,1.1,2.5,93,0.02,,,0.03,WUHU216HW,2013-01-12 06:21:00,
2013-01-12 01:23:00,40.2,38.3,30.09,North,0,1.8,2.5,93,0.02,,,0.03,WUHU216HW,2013-01-12 06:23:00,
2013-01-12 01:24:00,40.2,38.6,30.09,North,0,1.6,2.2,94,0.02,,,0.03,WUHU216HW,2013-01-12 06:24:00,
2013-01-12 01:27:00,40.4,38.8,30.09,NNE,23,1.3,1.8,94,0.02,,,0.03,WUHU216HW,2013-01-12 06:27:00,
2013-01-12 01:28:00,40.4,38.8,30.09,North,0,1.6,1.8,94,0.02,,,0.03,WUHU216HW,2013-01-12 06:28:00,
2013-01-12 01:29:00,40.4,38.8,30.10,North,0,0.9,1.8,94,0.02,,,0.03,WUHU216HW,2013-01-12 06:29:00,
2013-01-12 01:32:00,40.4,38.8,30.09,North,0,1.1,1.8,94,0.02,,,0.03,WUHU216HW,2013-01-12 06:32:00,
2013-01-12 01:33:00,40.4,38.8,30.09,North,0,1.1,1.6,94,0.02,,,0.03,WUHU216HW,2013-01-12 06:33:00,
2013-01-12 01:35:00,40.4,38.8,30.09,North,0,1.1,1.8,94,0.02,,,0.03,WUHU216HW,2013-01-12 06:35:00,
2013-01-12 01:37:00,40.4,38.8,30.09,North,0,2.2,2.2,94,0.02,,,0.03,WUHU216HW,2013-01-12 06:37:00,
2013-01-12 01:38:00,40.4,38.8,30.09,North,0,1.8,2.2,94,0.02,,,0.03,WUHU216HW,2013-01-12 06:38:00,
2013-01-12 01:40:00,40.4,38.8,30.09,North,0,2.0,2.2,94,0.02,,,0.03,WUHU216HW,2013-01-12 06:40:00,
2013-01-12 01:42:00,40.4,38.8,30.09,North,0,1.6,2.2,94,0.02,,,0.03,WUHU216HW,2013-01-12 06:42:00,
2013-01-12 01:43:00,40.4,38.8,30.09,North,0,1.6,2.2,94,0.02,,,0.03,WUHU216HW,2013-01-12 06:43:00,
2013-01-12 01:45:00,40.4,38.8,30.09,North,0,1.8,2.2,94,0.02,,,0.03,WUHU216HW,2013-01-12 06:45:00,
2013-01-12 01:48:00,40.4,38.8,30.09,North,0,1.6,2.2,94,0.02,,,0.03,WUHU216HW,2013-01-12 06:48:00,
2013-01-12 01:49:00,40.4,38.8,30.09,North,0,1.8,2.2,94,0.02,,,0.03,WUHU216HW,2013-01-12 06:49:00,
2013-01-12 01:50:00,40.4,38.8,30.09,NNE,23,1.6,2.2,94,0.01,,,0.03,WUHU216HW,2013-01-12 06:50:00,
2013-01-12 01:51:00,40.4,38.8,30.09,North,0,1.8,2.2,94,0.02,,,0.04,WUHU216HW,2013-01-12 06:51:00,
2013-01-12 01:53:00,40.6,39.0,30.09,North,0,2.5,2.5,94,0.02,,,0.04,WUHU216HW,2013-01-12 06:53:00,
2013-01-12 01:55:00,40.6,39.0,30.09,NNE,23,2.5,2.5,94,0.02,,,0.04,WUHU216HW,2013-01-12 06:55:00,
2013-01-12 01:56:00,40.6,39.0,30.09,North,0,1.8,2.5,94,0.02,,,0.04,WUHU216HW,2013-01-12 06:56:00,
2013-01-12 01:58:00,40.6,39.0,30.09,North,0,2.0,3.4,94,0.02,,,0.04,WUHU216HW,2013-01-12 06:58:00,
2013-01-12 02:00:00,40.6,39.0,30.09,North,0,2.0,3.4,94,0.02,,,0.04,WUHU216HW,2013-01-12 07:00:00,
2013-01-12 02:01:00,40.6,39.0,30.09,NNE,23,1.8,3.4,94,0.02,,,0.04,WUHU216HW,2013-01-12 07:01:00,
2013-01-12 02:04:00,40.8,39.2,30.09,NNE,23,2.0,3.4,94,0.02,,,0.04,WUHU216HW,2013-01-12 07:04:00,
2013-01-12 02:05:00,40.8,39.2,30.09,NNE,23,1.8,3.4,94,0.02,,,0.04,WUHU216HW,2013-01-12 07:05:00,
2013-01-12 02:06:00,40.8,39.2,30.09,NNE,23,1.8,2.0,94,0.02,,,0.04,WUHU216HW,2013-01-12 07:06:00,
2013-01-12 02:09:00,40.8,39.2,30.09,North,0,1.6,2.5,94,0.02,,,0.04,WUHU216HW,2013-01-12 07:09:00,
2013-01-12 02:10:00,40.8,39.2,30.09,NNE,23,2.7,2.7,94,0.02,,,0.04,WUHU216HW,2013-01-12 07:10:00,
2013-01-12 02:11:00,40.8,39.2,30.09,North,0,1.8,2.7,94,0.02,,,0.04,WUHU216HW,2013-01-12 07:11:00,
2013-01-12 02:14:00,40.9,39.3,30.09,NNE,23,1.8,2.7,94,0.01,,,0.04,WUHU216HW,2013-01-12 07:14:00,
2013-01-12 02:15:00,40.8,39.2,30.09,NNE,23,1.8,2.7,94,0.01,,,0.04,WUHU216HW,2013-01-12 07:15:00,
2013-01-12 02:17:00,40.8,39.2,30.09,NNE,23,2.5,2.7,94,0.01,,,0.04,WUHU216HW,2013-01-12 07:17:00,
2013-01-12 02:20:00,40.8,39.2,30.09,NNE,23,2.7,2.7,94,0.01,,,0.04,WUHU216HW,2013-01-12 07:20:00,
2013-01-12 02:21:00,40.9,39.3,30.09,NNE,23,2.7,2.7,94,0.01,,,0.04,WUHU216HW,2013-01-12 07:21:00,
2013-01-12 02:22:00,40.9,39.3,30.09,NNE,23,1.8,2.7,94,0.01,,,0.04,WUHU216HW,2013-01-12 07:22:00,
2013-01-12 02:25:00,40.9,39.3,30.09,North,0,1.8,3.1,94,0.01,,,0.04,WUHU216HW,2013-01-12 07:25:00,
2013-01-12 02:26:00,40.9,39.3,30.09,North,0,2.5,3.1,94,0.01,,,0.04,WUHU216HW,2013-01-12 07:26:00,
2013-01-12 02:27:00,40.9,39.3,30.09,NNE,23,1.3,3.1,94,0.01,,,0.04,WUHU216HW,2013-01-12 07:27:00,
2013-01-12 02:30:00,40.9,39.3,30.09,North,0,1.8,3.1,94,0.01,,,0.04,WUHU216HW,2013-01-12 07:30:00,
2013-01-12 02:31:00,40.9,39.3,30.09,NNE,23,2.5,3.1,94,0.01,,,0.04,WUHU216HW,2013-01-12 07:31:00,
2013-01-12 02:32:00,40.9,39.3,30.09,North,0,1.3,3.1,94,0.01,,,0.04,WUHU216HW,2013-01-12 07:32:00,
2013-01-12 02:35:00,40.9,39.3,30.09,NNE,23,1.8,2.7,94,0.01,,,0.04,WUHU216HW,2013-01-12 07:35:00,
2013-01-12 02:36:00,40.9,39.3,30.09,NNE,23,1.8,2.7,94,0.01,,,0.04,WUHU216HW,2013-01-12 07:36:00,
2013-01-12 02:37:00,40.9,39.3,30.09,North,0,1.6,2.7,94,0.01,,,0.04,WUHU216HW,2013-01-12 07:37:00,
2013-01-12 02:40:00,40.9,39.3,30.09,North,0,2.5,2.7,94,0.01,,,0.04,WUHU216HW,2013-01-12 07:40:00,
2013-01-12 02:41:00,40.9,39.3,30.09,North,0,2.5,2.7,94,0.01,,,0.04,WUHU216HW,2013-01-12 07:41:00,
2013-01-12 02:42:00,40.9,39.3,30.10,North,0,1.8,2.5,94,0.01,,,0.04,WUHU216HW,2013-01-12 07:42:00,
2013-01-12 02:45:00,41.1,39.5,30.10,North,0,2.5,2.5,94,0.01,,,0.04,WUHU216HW,2013-01-12 07:45:00,
2013-01-12 02:46:00,41.1,39.5,30.10,North,0,2.5,2.5,94,0.01,,,0.04,WUHU216HW,2013-01-12 07:46:00,
2013-01-12 02:47:00,41.1,39.5,30.10,North,0,2.5,2.5,94,0.01,,,0.04,WUHU216HW,2013-01-12 07:47:00,
2013-01-12 02:50:00,41.1,39.5,30.10,North,0,2.0,2.5,94,0.00,,,0.04,WUHU216HW,2013-01-12 07:50:00,
2013-01-12 02:51:00,41.1,39.5,30.10,North,0,2.5,2.5,94,0.00,,,0.04,WUHU216HW,2013-01-12 07:51:00,
2013-01-12 02:52:00,41.1,39.5,30.10,North,0,2.5,2.5,94,0.00,,,0.04,WUHU216HW,2013-01-12 07:52:00,
2013-01-12 02:56:00,41.1,39.5,30.10,NNE,23,2.2,2.5,94,0.00,,,0.04,WUHU216HW,2013-01-12 07:56:00,
2013-01-12 02:57:00,41.1,39.5,30.10,North,0,2.0,2.5,94,0.00,,,0.04,WUHU216HW,2013-01-12 07:57:00,
2013-01-12 03:01:00,41.1,39.5,30.10,North,0,2.5,2.9,94,0.00,,,0.04,WUHU216HW,2013-01-12 08:01:00,
2013-01-12 03:02:00,41.1,39.5,30.10,North,0,2.0,2.9,94,0.00,,,0.04,WUHU216HW,2013-01-12 08:02:00,
2013-01-12 03:03:00,41.1,39.5,30.10,North,0,2.0,2.9,94,0.01,,,0.05,WUHU216HW,2013-01-12 08:03:00,
2013-01-12 03:06:00,41.1,39.5,30.10,NNE,23,1.8,2.9,94,0.01,,,0.05,WUHU216HW,2013-01-12 08:06:00,
2013-01-12 03:07:00,41.1,39.5,30.10,NNE,23,1.8,2.9,94,0.01,,,0.05,WUHU216HW,2013-01-12 08:07:00,
2013-01-12 03:08:00,41.1,39.5,30.10,North,0,2.0,2.5,94,0.01,,,0.05,WUHU216HW,2013-01-12 08:08:00,
2013-01-12 03:11:00,41.1,39.5,30.10,North,0,2.2,2.5,94,0.01,,,0.05,WUHU216HW,2013-01-12 08:11:00,
2013-01-12 03:12:00,41.1,39.5,30.10,North,0,2.2,2.5,94,0.01,,,0.05,WUHU216HW,2013-01-12 08:12:00,
2013-01-12 03:13:00,41.1,39.5,30.10,North,0,1.8,2.5,94,0.01,,,0.05,WUHU216HW,2013-01-12 08:13:00,
2013-01-12 03:16:00,41.3,39.7,30.10,NNE,23,2.0,2.5,94,0.01,,,0.05,WUHU216HW,2013-01-12 08:16:00,
2013-01-12 03:17:00,41.3,39.7,30.10,NNE,23,2.0,2.5,94,0.01,,,0.05,WUHU216HW,2013-01-12 08:17:00,
2013-01-12 03:18:00,41.1,39.5,30.09,North,0,2.0,2.5,94,0.01,,,0.05,WUHU216HW,2013-01-12 08:18:00,
2013-01-12 03:21:00,41.3,39.7,30.09,North,0,2.5,2.5,94,0.01,,,0.05,WUHU216HW,2013-01-12 08:21:00,
2013-01-12 03:22:00,41.3,39.7,30.09,North,0,2.5,2.5,94,0.01,,,0.05,WUHU216HW,2013-01-12 08:22:00,
2013-01-12 03:24:00,41.3,39.7,30.09,North,0,2.2,2.5,94,0.01,,,0.05,WUHU216HW,2013-01-12 08:24:00,
2013-01-12 03:27:00,41.3,39.7,30.09,North,0,1.8,2.5,94,0.01,,,0.05,WUHU216HW,2013-01-12 08:27:00,
2013-01-12 03:29:00,41.3,39.7,30.10,North,0,2.0,2.5,94,0.01,,,0.05,WUHU216HW,2013-01-12 08:29:00,
2013-01-12 03:32:00,41.3,39.7,30.10,North,0,1.6,2.5,94,0.01,,,0.05,WUHU216HW,2013-01-12 08:32:00,
2013-01-12 03:34:00,41.5,39.9,30.10,North,0,1.6,2.5,94,0.01,,,0.05,WUHU216HW,2013-01-12 08:34:00,
2013-01-12 03:37:00,41.5,39.9,30.10,North,0,2.7,2.7,94,0.01,,,0.05,WUHU216HW,2013-01-12 08:37:00,
2013-01-12 03:39:00,41.3,39.7,30.09,North,0,1.6,2.7,94,0.01,,,0.05,WUHU216HW,2013-01-12 08:39:00,
2013-01-12 03:42:00,41.3,39.7,30.09,NNW,338,2.2,2.7,94,0.01,,,0.05,WUHU216HW,2013-01-12 08:42:00,
2013-01-12 03:43:00,41.3,39.7,30.09,North,0,1.8,2.7,94,0.01,,,0.05,WUHU216HW,2013-01-12 08:43:00,
2013-01-12 03:44:00,41.3,39.7,30.09,NNW,338,2.9,2.9,94,0.01,,,0.05,WUHU216HW,2013-01-12 08:44:00,
2013-01-12 03:47:00,41.3,39.9,30.08,North,0,2.2,3.1,95,0.01,,,0.05,WUHU216HW,2013-01-12 08:47:00,
2013-01-12 03:48:00,41.3,39.9,30.08,North,0,2.2,3.1,95,0.01,,,0.05,WUHU216HW,2013-01-12 08:48:00,
2013-01-12 03:49:00,41.3,39.9,30.08,North,0,2.9,3.1,95,0.01,,,0.05,WUHU216HW,2013-01-12 08:49:00,
2013-01-12 03:52:00,41.3,39.9,30.08,NNE,23,2.5,3.4,95,0.01,,,0.05,WUHU216HW,2013-01-12 08:52:00,
2013-01-12 03:53:00,41.3,39.9,30.08,NNE,23,2.5,3.4,95,0.01,,,0.05,WUHU216HW,2013-01-12 08:53:00,
2013-01-12 03:54:00,41.3,39.9,30.08,North,0,1.8,3.4,95,0.01,,,0.05,WUHU216HW,2013-01-12 08:54:00,
2013-01-12 03:57:00,41.3,39.9,30.08,North,0,1.8,3.4,95,0.01,,,0.05,WUHU216HW,2013-01-12 08:57:00,
2013-01-12 03:58:00,41.3,39.9,30.08,North,0,1.8,3.4,95,0.01,,,0.05,WUHU216HW,2013-01-12 08:58:00,
2013-01-12 03:59:00,41.3,39.9,30.08,North,0,2.7,3.4,95,0.01,,,0.05,WUHU216HW,2013-01-12 08:59:00,
2013-01-12 04:02:00,41.3,39.9,30.09,North,0,3.6,3.6,95,0.00,,,0.05,WUHU216HW,2013-01-12 09:02:00,
2013-01-12 04:03:00,41.3,39.9,30.08,North,0,2.0,3.6,95,0.00,,,0.05,WUHU216HW,2013-01-12 09:03:00,
2013-01-12 04:04:00,41.3,39.9,30.08,North,0,3.4,3.6,95,0.00,,,0.05,WUHU216HW,2013-01-12 09:04:00,
2013-01-12 04:07:00,41.3,39.9,30.09,North,0,2.7,3.6,95,0.00,,,0.05,WUHU216HW,2013-01-12 09:07:00,
2013-01-12 04:08:00,41.3,39.9,30.08,North,0,2.2,3.6,95,0.00,,,0.05,WUHU216HW,2013-01-12 09:08:00,
2013-01-12 04:09:00,41.3,39.9,30.08,North,0,3.4,3.6,95,0.00,,,0.05,WUHU216HW,2013-01-12 09:09:00,
2013-01-12 04:10:00,41.3,39.9,30.08,North,0,3.4,3.6,95,0.00,,,0.05,WUHU216HW,2013-01-12 09:10:00,
2013-01-12 04:13:00,41.3,39.9,30.09,North,0,3.6,3.6,95,0.00,,,0.05,WUHU216HW,2013-01-12 09:13:00,
2013-01-12 04:14:00,41.3,39.9,30.09,North,0,1.8,3.6,95,0.00,,,0.05,WUHU216HW,2013-01-12 09:14:00,
2013-01-12 04:15:00,41.3,39.9,30.09,North,0,1.8,3.6,95,0.00,,,0.05,WUHU216HW,2013-01-12 09:15:00,
2013-01-12 04:18:00,41.3,39.9,30.08,NNE,23,2.2,3.6,95,0.00,,,0.05,WUHU216HW,2013-01-12 09:18:00,
2013-01-12 04:19:00,41.3,39.9,30.08,NNE,23,2.2,3.6,95,0.00,,,0.05,WUHU216HW,2013-01-12 09:19:00,
2013-01-12 04:21:00,41.3,39.9,30.08,NNE,23,2.2,3.6,95,0.00,,,0.05,WUHU216HW,2013-01-12 09:21:00,
2013-01-12 04:23:00,41.3,39.9,30.08,NNE,23,2.2,3.6,95,0.00,,,0.05,WUHU216HW,2013-01-12 09:23:00,
2013-01-12 04:25:00,41.3,39.9,30.08,NNE,23,2.2,3.6,95,0.00,,,0.05,WUHU216HW,2013-01-12 09:25:00,
2013-01-12 04:26:00,41.3,39.9,30.08,NNE,23,2.2,2.5,95,0.00,,,0.05,WUHU216HW,2013-01-12 09:26:00,
2013-01-12 04:48:00,41.3,39.9,30.07,North,0,2.2,2.2,95,0.00,,,0.05,WUHU216HW,2013-01-12 09:48:00,
2013-01-12 04:53:00,41.3,39.9,30.06,NNE,23,2.0,2.7,95,0.00,,,0.05,WUHU216HW,2013-01-12 09:53:00,
2013-01-12 04:58:00,41.1,39.7,30.06,North,0,2.2,2.7,95,0.00,,,0.05,WUHU216HW,2013-01-12 09:58:00,
2013-01-12 05:03:00,41.1,39.7,30.07,North,0,2.5,2.9,95,0.00,,,0.05,WUHU216HW,2013-01-12 10:03:00,
2013-01-12 05:04:00,41.1,39.7,30.07,North,0,2.5,2.9,95,0.00,,,0.05,WUHU216HW,2013-01-12 10:04:00,
2013-01-12 05:08:00,41.3,39.9,30.08,North,0,1.6,3.1,95,0.00,,,0.05,WUHU216HW,2013-01-12 10:08:00,
2013-01-12 05:09:00,41.3,39.9,30.08,North,0,1.6,3.1,95,0.00,,,0.05,WUHU216HW,2013-01-12 10:09:00,
2013-01-12 05:13:00,41.3,39.9,30.08,North,0,3.1,3.1,95,0.00,,,0.05,WUHU216HW,2013-01-12 10:13:00,
2013-01-12 05:14:00,41.3,39.9,30.08,North,0,3.1,3.1,95,0.00,,,0.05,WUHU216HW,2013-01-12 10:14:00,
2013-01-12 05:18:00,41.3,39.9,30.09,North,0,0.9,3.1,95,0.00,,,0.05,WUHU216HW,2013-01-12 10:18:00,
2013-01-12 05:19:00,41.3,39.9,30.09,North,0,0.9,3.1,95,0.00,,,0.05,WUHU216HW,2013-01-12 10:19:00,
2013-01-12 05:23:00,41.3,39.9,30.08,North,0,1.8,2.5,95,0.00,,,0.05,WUHU216HW,2013-01-12 10:23:00,
2013-01-12 05:24:00,41.3,39.9,30.08,North,0,1.8,2.5,95,0.00,,,0.05,WUHU216HW,2013-01-12 10:24:00,
2013-01-12 05:28:00,41.3,39.9,30.08,North,0,0.7,2.5,95,0.00,,,0.05,WUHU216HW,2013-01-12 10:28:00,
2013-01-12 05:29:00,41.3,39.9,30.08,North,0,0.7,2.5,95,0.00,,,0.05,WUHU216HW,2013-01-12 10:29:00,
2013-01-12 05:33:00,41.3,39.9,30.09,North,0,0.9,2.0,95,0.00,,,0.05,WUHU216HW,2013-01-12 10:33:00,
2013-01-12 05:34:00,41.3,39.9,30.09,North,0,0.9,2.0,95,0.00,,,0.05,WUHU216HW,2013-01-12 10:34:00,
2013-01-12 05:39:00,41.1,39.7,30.09,North,0,2.5,3.4,95,0.00,,,0.05,WUHU216HW,2013-01-12 10:39:00,
2013-01-12 05:44:00,41.1,39.7,30.10,North,0,1.1,3.4,95,0.00,,,0.05,WUHU216HW,2013-01-12 10:44:00,
2013-01-12 05:45:00,41.1,39.7,30.10,North,0,1.8,3.4,95,0.00,,,0.05,WUHU216HW,2013-01-12 10:45:00,
2013-01-12 05:49:00,41.1,39.7,30.11,North,0,1.1,2.7,95,0.00,,,0.05,WUHU216HW,2013-01-12 10:49:00,
2013-01-12 05:50:00,41.3,39.9,30.11,North,0,2.7,2.7,95,0.00,,,0.05,WUHU216HW,2013-01-12 10:50:00,
2013-01-12 05:54:00,41.3,39.9,30.11,North,0,0.9,2.7,95,0.00,,,0.05,WUHU216HW,2013-01-12 10:54:00,
2013-01-12 05:55:00,41.3,39.9,30.11,North,0,0.9,2.7,95,0.00,,,0.05,WUHU216HW,2013-01-12 10:55:00,
2013-01-12 05:59:00,41.3,39.9,30.11,North,0,0.9,2.7,95,0.00,,,0.05,WUHU216HW,2013-01-12 10:59:00,
2013-01-12 06:00:00,41.1,39.7,30.11,NNE,23,1.8,1.8,95,0.00,,,0.05,WUHU216HW,2013-01-12 11:00:00,
2013-01-12 06:04:00,41.3,39.9,30.10,NNE,23,1.1,1.8,95,0.00,,,0.05,WUHU216HW,2013-01-12 11:04:00,
2013-01-12 06:05:00,41.3,39.9,30.10,NNE,23,1.1,1.8,95,0.00,,,0.05,WUHU216HW,2013-01-12 11:05:00,
2013-01-12 06:09:00,41.1,39.7,30.10,NNE,23,1.8,2.0,95,0.00,,,0.05,WUHU216HW,2013-01-12 11:09:00,
2013-01-12 06:10:00,41.1,39.7,30.10,NNE,23,1.6,2.0,95,0.00,,,0.05,WUHU216HW,2013-01-12 11:10:00,
2013-01-12 06:11:00,41.1,39.7,30.10,NNE,23,1.6,2.0,95,0.00,,,0.05,WUHU216HW,2013-01-12 11:11:00,
2013-01-12 06:14:00,41.1,39.7,30.10,NNE,23,1.3,2.0,95,0.00,,,0.05,WUHU216HW,2013-01-12 11:14:00,
2013-01-12 06:15:00,41.1,39.7,30.10,North,0,1.1,2.0,95,0.00,,,0.05,WUHU216HW,2013-01-12 11:15:00,
2013-01-12 06:16:00,41.1,39.7,30.10,North,0,1.1,2.0,95,0.00,,,0.05,WUHU216HW,2013-01-12 11:16:00,
2013-01-12 06:19:00,41.1,39.7,30.10,North,0,1.3,2.2,95,0.00,,,0.05,WUHU216HW,2013-01-12 11:19:00,
2013-01-12 06:20:00,41.1,39.7,30.10,North,0,1.1,2.2,95,0.00,,,0.05,WUHU216HW,2013-01-12 11:20:00,
2013-01-12 06:21:00,41.1,39.7,30.10,North,0,1.1,2.2,95,0.00,,,0.05,WUHU216HW,2013-01-12 11:21:00,
2013-01-12 06:24:00,41.3,39.9,30.10,North,0,1.8,2.2,95,0.00,,,0.05,WUHU216HW,2013-01-12 11:24:00,
2013-01-12 06:25:00,41.3,39.9,30.11,North,0,1.8,2.2,95,0.00,,,0.05,WUHU216HW,2013-01-12 11:25:00,
2013-01-12 06:26:00,41.3,39.9,30.11,North,0,1.8,1.8,95,0.00,,,0.05,WUHU216HW,2013-01-12 11:26:00,
2013-01-12 06:29:00,41.3,39.9,30.11,NNE,23,2.0,2.0,95,0.00,,,0.05,WUHU216HW,2013-01-12 11:29:00,
2013-01-12 06:31:00,41.1,39.7,30.11,NNE,23,1.1,2.0,95,0.00,,,0.05,WUHU216HW,2013-01-12 11:31:00,
2013-01-12 06:34:00,41.1,39.7,30.11,North,0,1.8,2.0,95,0.00,,,0.05,WUHU216HW,2013-01-12 11:34:00,
2013-01-12 06:36:00,41.1,39.7,30.11,NNE,23,2.0,2.0,95,0.00,,,0.05,WUHU216HW,2013-01-12 11:36:00,
2013-01-12 06:39:00,41.1,39.7,30.11,NNE,23,1.8,2.0,95,0.00,,,0.05,WUHU216HW,2013-01-12 11:39:00,
2013-01-12 06:41:00,41.1,39.7,30.11,NNE,23,1.1,2.0,95,0.00,,,0.05,WUHU216HW,2013-01-12 11:41:00,
2013-01-12 06:42:00,41.1,39.7,30.10,NNE,23,1.8,2.0,95,0.00,,,0.05,WUHU216HW,2013-01-12 11:42:00,
2013-01-12 06:44:00,41.1,39.7,30.11,NNE,23,1.3,2.0,95,0.00,,,0.05,WUHU216HW,2013-01-12 11:44:00,
2013-01-12 06:46:00,41.1,39.7,30.11,NNE,23,1.1,1.8,95,0.00,,,0.05,WUHU216HW,2013-01-12 11:46:00,
2013-01-12 06:47:00,41.1,39.7,30.11,NNE,23,1.8,1.8,95,0.00,,,0.05,WUHU216HW,2013-01-12 11:47:00,
2013-01-12 06:50:00,41.1,39.7,30.10,NNE,23,1.6,1.8,95,0.00,,,0.05,WUHU216HW,2013-01-12 11:50:00,
2013-01-12 06:51:00,41.1,39.7,30.10,NNE,23,2.0,2.0,95,0.00,,,0.05,WUHU216HW,2013-01-12 11:51:00,
2013-01-12 06:52:00,41.1,39.7,30.10,NNE,23,1.8,2.0,95,0.00,,,0.05,WUHU216HW,2013-01-12 11:52:00,
2013-01-12 06:55:00,41.1,39.7,30.10,NNE,23,0.9,2.0,95,0.00,,,0.05,WUHU216HW,2013-01-12 11:55:00,
2013-01-12 06:56:00,41.1,39.7,30.10,ENE,68,1.3,2.0,95,0.00,,,0.05,WUHU216HW,2013-01-12 11:56:00,
2013-01-12 06:57:00,41.1,39.7,30.10,NNE,23,1.3,2.0,95,0.00,,,0.05,WUHU216HW,2013-01-12 11:57:00,
2013-01-12 07:00:00,41.1,39.7,30.10,NNE,23,1.8,2.0,95,0.00,,,0.05,WUHU216HW,2013-01-12 12:00:00,
2013-01-12 07:01:00,41.1,39.7,30.10,North,0,0.9,1.8,95,0.00,,,0.05,WUHU216HW,2013-01-12 12:01:00,
2013-01-12 07:02:00,41.1,39.7,30.10,NNE,23,1.8,1.8,95,0.00,,,0.05,WUHU216HW,2013-01-12 12:02:00,
2013-01-12 07:05:00,41.1,39.7,30.11,NNE,23,1.6,1.8,95,0.00,,,0.05,WUHU216HW,2013-01-12 12:05:00,
2013-01-12 07:06:00,41.1,39.7,30.11,NNE,23,1.6,1.8,95,0.00,,,0.05,WUHU216HW,2013-01-12 12:06:00,
2013-01-12 07:07:00,41.1,39.7,30.11,NNE,23,1.8,1.8,95,0.00,,,0.05,WUHU216HW,2013-01-12 12:07:00,
2013-01-12 07:10:00,41.1,39.7,30.11,NNE,23,1.1,2.2,95,0.00,,,0.05,WUHU216HW,2013-01-12 12:10:00,
2013-01-12 07:11:00,41.1,39.7,30.11,NNE,23,1.3,2.2,95,0.00,,,0.05,WUHU216HW,2013-01-12 12:11:00,
2013-01-12 07:12:00,41.1,39.7,30.11,NNE,23,1.1,2.2,95,0.00,,,0.05,WUHU216HW,2013-01-12 12:12:00,
2013-01-12 07:15:00,41.1,39.7,30.11,North,0,1.6,2.2,95,0.00,,,0.05,WUHU216HW,2013-01-12 12:15:00,
2013-01-12 07:16:00,41.1,39.7,30.12,North,0,1.1,2.2,95,0.00,,,0.05,WUHU216HW,2013-01-12 12:16:00,
2013-01-12 07:17:00,41.1,39.7,30.11,North,0,1.1,2.2,95,0.00,,,0.05,WUHU216HW,2013-01-12 12:17:00,
2013-01-12 07:20:00,41.1,39.7,30.11,NNE,23,1.8,1.8,95,0.00,,,0.05,WUHU216HW,2013-01-12 12:20:00,
2013-01-12 07:21:00,41.1,39.7,30.12,NNE,23,1.8,1.8,95,0.00,,,0.05,WUHU216HW,2013-01-12 12:21:00,
2013-01-12 07:22:00,41.1,39.7,30.12,NNE,23,1.8,1.8,95,0.00,,,0.05,WUHU216HW,2013-01-12 12:22:00,
2013-01-12 07:25:00,41.1,39.7,30.11,NNE,23,1.1,1.8,95,0.00,,,0.05,WUHU216HW,2013-01-12 12:25:00,
2013-01-12 07:26:00,41.1,39.7,30.11,NNE,23,1.6,1.8,95,0.00,,,0.05,WUHU216HW,2013-01-12 12:26:00,
2013-01-12 07:27:00,41.1,39.7,30.11,NNE,23,1.6,1.8,95,0.00,,,0.05,WUHU216HW,2013-01-12 12:27:00,
2013-01-12 07:31:00,41.1,39.7,30.11,NNE,23,0.9,1.8,95,0.00,,,0.05,WUHU216HW,2013-01-12 12:31:00,
2013-01-12 07:32:00,41.1,39.7,30.11,North,0,2.2,2.2,95,0.00,,,0.05,WUHU216HW,2013-01-12 12:32:00,
2013-01-12 07:33:00,41.1,39.7,30.12,North,0,1.3,2.2,95,0.00,,,0.05,WUHU216HW,2013-01-12 12:33:00,
2013-01-12 07:36:00,41.1,39.7,30.13,NNW,338,1.8,2.2,95,0.00,,,0.05,WUHU216HW,2013-01-12 12:36:00,
2013-01-12 07:37:00,41.1,39.7,30.13,NNW,338,1.8,2.2,95,0.00,,,0.05,WUHU216HW,2013-01-12 12:37:00,
2013-01-12 07:38:00,41.1,39.7,30.13,NNW,338,1.1,2.2,95,0.00,,,0.05,WUHU216HW,2013-01-12 12:38:00,
2013-01-12 07:41:00,41.1,39.7,30.13,NNW,338,1.1,2.2,95,0.00,,,0.05,WUHU216HW,2013-01-12 12:41:00,
2013-01-12 07:42:00,41.1,39.7,30.13,NNW,338,0.9,1.8,95,0.00,,,0.05,WUHU216HW,2013-01-12 12:42:00,
2013-01-12 07:43:00,41.1,39.7,30.13,NNW,338,0.4,1.8,95,0.00,,,0.05,WUHU216HW,2013-01-12 12:43:00,
2013-01-12 07:46:00,41.1,39.7,30.13,NNW,338,0.9,1.1,95,0.00,,,0.05,WUHU216HW,2013-01-12 12:46:00,
2013-01-12 07:47:00,41.1,39.7,30.14,North,0,1.1,1.1,95,0.00,,,0.05,WUHU216HW,2013-01-12 12:47:00,
2013-01-12 07:48:00,41.1,39.7,30.14,North,0,0.7,1.1,95,0.00,,,0.05,WUHU216HW,2013-01-12 12:48:00,
2013-01-12 07:51:00,41.1,39.7,30.13,NNE,23,1.8,2.2,95,0.00,,,0.05,WUHU216HW,2013-01-12 12:51:00,
2013-01-12 07:52:00,41.1,39.7,30.13,North,0,1.1,2.2,95,0.00,,,0.05,WUHU216HW,2013-01-12 12:52:00,
2013-01-12 07:53:00,41.3,39.9,30.13,North,0,1.3,2.2,95,0.00,,,0.05,WUHU216HW,2013-01-12 12:53:00,
2013-01-12 07:56:00,41.3,39.9,30.13,North,0,0.9,2.2,95,0.00,,,0.05,WUHU216HW,2013-01-12 12:56:00,
2013-01-12 07:57:00,41.5,40.1,30.13,North,0,0.7,2.2,95,0.00,,,0.05,WUHU216HW,2013-01-12 12:57:00,
2013-01-12 07:58:00,41.5,40.1,30.14,NW,315,1.8,2.2,95,0.00,,,0.05,WUHU216HW,2013-01-12 12:58:00,
2013-01-12 08:01:00,41.5,40.1,30.14,North,0,1.8,1.8,95,0.00,,,0.05,WUHU216HW,2013-01-12 13:01:00,
2013-01-12 08:02:00,41.5,40.1,30.14,North,0,2.0,2.0,95,0.00,,,0.05,WUHU216HW,2013-01-12 13:02:00,
2013-01-12 08:03:00,41.5,40.1,30.14,NNE,23,1.6,2.0,95,0.00,,,0.05,WUHU216HW,2013-01-12 13:03:00,
2013-01-12 08:06:00,41.5,40.1,30.14,North,0,1.8,2.5,95,0.00,,,0.05,WUHU216HW,2013-01-12 13:06:00,
2013-01-12 08:07:00,41.5,40.1,30.14,North,0,1.8,2.5,95,0.00,,,0.05,WUHU216HW,2013-01-12 13:07:00,
2013-01-12 08:08:00,41.5,40.1,30.14,North,0,1.8,2.5,95,0.00,,,0.05,WUHU216HW,2013-01-12 13:08:00,
2013-01-12 08:11:00,41.7,40.3,30.14,NNE,23,1.1,2.5,95,0.00,,,0.05,WUHU216HW,2013-01-12 13:11:00,
2013-01-12 08:12:00,41.8,40.4,30.14,NNE,23,1.3,2.5,95,0.00,,,0.05,WUHU216HW,2013-01-12 13:12:00,
2013-01-12 08:13:00,41.8,40.4,30.14,North,0,0.9,2.5,95,0.00,,,0.05,WUHU216HW,2013-01-12 13:13:00,
2013-01-12 08:14:00,41.8,40.4,30.14,North,0,0.9,2.5,95,0.00,,,0.05,WUHU216HW,2013-01-12 13:14:00,
2013-01-12 08:16:00,41.7,40.3,30.14,NE,45,1.1,2.0,95,0.00,,,0.05,WUHU216HW,2013-01-12 13:16:00,
2013-01-12 08:17:00,41.6,40.3,30.14,NNE,23,1.3,2.0,95,0.00,,,0.05,WUHU216HW,2013-01-12 13:17:00,
2013-01-12 08:18:00,41.7,40.4,30.14,North,0,2.2,2.2,95,0.00,,,0.05,WUHU216HW,2013-01-12 13:18:00,
2013-01-12 08:19:00,41.7,40.4,30.14,North,0,2.2,2.2,95,0.00,,,0.05,WUHU216HW,2013-01-12 13:19:00,
2013-01-12 08:22:00,41.7,40.4,30.14,NNE,23,2.0,2.2,95,0.00,,,0.05,WUHU216HW,2013-01-12 13:22:00,
2013-01-12 08:23:00,41.7,40.4,30.14,NNE,23,1.8,2.2,95,0.00,,,0.05,WUHU216HW,2013-01-12 13:23:00,
2013-01-12 08:24:00,41.7,40.4,30.14,NNE,23,1.8,2.2,95,0.00,,,0.05,WUHU216HW,2013-01-12 13:24:00,
2013-01-12 08:27:00,41.7,40.3,30.14,NNE,23,1.8,2.2,95,0.00,,,0.05,WUHU216HW,2013-01-12 13:27:00,
2013-01-12 08:29:00,41.7,40.3,30.13,North,0,1.8,2.2,95,0.00,,,0.05,WUHU216HW,2013-01-12 13:29:00,
2013-01-12 08:32:00,41.7,40.3,30.13,NNE,23,2.5,2.5,95,0.00,,,0.05,WUHU216HW,2013-01-12 13:32:00,
2013-01-12 08:34:00,41.7,40.3,30.13,NNE,23,0.7,2.5,95,0.00,,,0.05,WUHU216HW,2013-01-12 13:34:00,
2013-01-12 08:37:00,41.7,40.3,30.13,North,0,0.2,2.5,95,0.00,,,0.05,WUHU216HW,2013-01-12 13:37:00,
2013-01-12 08:38:00,41.7,40.3,30.14,NE,45,1.3,2.5,95,0.00,,,0.05,WUHU216HW,2013-01-12 13:38:00,
2013-01-12 08:39:00,41.7,40.3,30.14,North,0,0.9,2.5,95,0.00,,,0.05,WUHU216HW,2013-01-12 13:39:00,
2013-01-12 08:42:00,41.7,40.3,30.13,NNE,23,1.3,2.2,95,0.00,,,0.05,WUHU216HW,2013-01-12 13:42:00,
2013-01-12 08:43:00,41.7,40.3,30.13,NNE,23,2.5,2.5,95,0.00,,,0.05,WUHU216HW,2013-01-12 13:43:00,
2013-01-12 08:44:00,41.7,40.3,30.14,NNE,23,2.5,2.5,95,0.00,,,0.05,WUHU216HW,2013-01-12 13:44:00,
2013-01-12 08:47:00,41.6,40.3,30.13,NNE,23,1.8,2.5,95,0.00,,,0.05,WUHU216HW,2013-01-12 13:47:00,
2013-01-12 08:48:00,41.6,40.3,30.14,NNE,23,1.6,2.5,95,0.00,,,0.05,WUHU216HW,2013-01-12 13:48:00,
2013-01-12 08:49:00,41.6,40.3,30.14,NNE,23,1.8,2.5,95,0.00,,,0.05,WUHU216HW,2013-01-12 13:49:00,
2013-01-12 08:52:00,41.6,40.3,30.13,North,0,2.0,2.5,95,0.00,,,0.05,WUHU216HW,2013-01-12 13:52:00,
2013-01-12 08:53:00,41.6,40.3,30.13,North,0,1.6,2.5,95,0.00,,,0.05,WUHU216HW,2013-01-12 13:53:00,
2013-01-12 08:54:00,41.6,40.2,30.13,North,0,1.1,2.0,95,0.00,,,0.05,WUHU216HW,2013-01-12 13:54:00,
2013-01-12 08:57:00,41.8,40.4,30.13,NE,45,1.8,2.0,95,0.00,,,0.05,WUHU216HW,2013-01-12 13:57:00,
2013-01-12 08:58:00,41.6,40.2,30.14,NNE,23,1.3,2.0,95,0.00,,,0.05,WUHU216HW,2013-01-12 13:58:00,
2013-01-12 08:59:00,41.8,40.4,30.14,North,0,1.1,2.0,95,0.00,,,0.05,WUHU216HW,2013-01-12 13:59:00,
2013-01-12 09:00:00,41.6,40.2,30.14,NNW,338,1.1,2.0,95,0.00,,,0.05,WUHU216HW,2013-01-12 14:00:00,
2013-01-12 09:03:00,41.8,40.4,30.14,NE,45,1.8,1.8,95,0.00,,,0.05,WUHU216HW,2013-01-12 14:03:00,
2013-01-12 09:04:00,41.8,40.4,30.14,NE,45,1.1,1.8,95,0.00,,,0.05,WUHU216HW,2013-01-12 14:04:00,
2013-01-12 09:05:00,41.8,40.4,30.14,NNE,23,1.3,1.8,95,0.00,,,0.05,WUHU216HW,2013-01-12 14:05:00,
2013-01-12 09:08:00,41.8,40.4,30.14,North,0,1.1,1.8,95,0.00,,,0.05,WUHU216HW,2013-01-12 14:08:00,
2013-01-12 09:09:00,41.8,40.4,30.14,NNE,23,1.8,1.8,95,0.00,,,0.05,WUHU216HW,2013-01-12 14:09:00,
2013-01-12 09:10:00,41.8,40.4,30.14,NE,45,2.5,2.5,95,0.00,,,0.05,WUHU216HW,2013-01-12 14:10:00,
2013-01-12 09:13:00,41.7,40.4,30.14,NNE,23,1.6,2.5,95,0.00,,,0.05,WUHU216HW,2013-01-12 14:13:00,
2013-01-12 09:14:00,41.7,40.4,30.14,NNE,23,0.9,2.5,95,0.00,,,0.05,WUHU216HW,2013-01-12 14:14:00,
2013-01-12 09:16:00,41.7,40.4,30.14,NNE,23,1.3,2.5,95,0.00,,,0.05,WUHU216HW,2013-01-12 14:16:00,
2013-01-12 09:18:00,41.9,40.6,30.13,NE,45,0.2,2.5,95,0.00,,,0.05,WUHU216HW,2013-01-12 14:18:00,
2013-01-12 09:19:00,41.9,40.6,30.13,NE,45,0.2,2.5,95,0.00,,,0.05,WUHU216HW,2013-01-12 14:19:00,
2013-01-12 09:21:00,41.9,40.6,30.13,NNE,23,0.0,2.0,95,0.00,,,0.05,WUHU216HW,2013-01-12 14:21:00,
2013-01-12 09:24:00,41.9,40.6,30.13,NNE,23,0.0,1.3,95,0.00,,,0.05,WUHU216HW,2013-01-12 14:24:00,
2013-01-12 09:25:00,41.9,40.6,30.13,NNE,23,0.0,1.3,95,0.00,,,0.05,WUHU216HW,2013-01-12 14:25:00,
2013-01-12 09:26:00,41.9,40.6,30.13,NNE,23,0.0,1.1,95,0.00,,,0.05,WUHU216HW,2013-01-12 14:26:00,
2013-01-12 09:49:00,42.3,41.0,30.14,NNE,23,1.1,1.1,95,0.00,,,0.05,WUHU216HW,2013-01-12 14:49:00,
2013-01-12 09:54:00,42.5,41.1,30.14,NE,45,1.8,1.8,95,0.00,,,0.05,WUHU216HW,2013-01-12 14:54:00,
2013-01-12 09:59:00,42.5,41.1,30.14,NNE,23,2.0,2.0,95,0.00,,,0.05,WUHU216HW,2013-01-12 14:59:00,
2013-01-12 10:04:00,42.7,41.3,30.14,North,0,0.4,2.0,95,0.00,,,0.05,WUHU216HW,2013-01-12 15:04:00,
2013-01-12 10:05:00,42.7,41.3,30.14,North,0,0.9,2.0,95,0.00,,,0.05,WUHU216HW,2013-01-12 15:05:00,
2013-01-12 10:09:00,42.9,41.5,30.14,North,0,1.8,1.8,95,0.00,,,0.05,WUHU216HW,2013-01-12 15:09:00,
2013-01-12 10:10:00,42.9,41.5,30.14,North,0,1.8,1.8,95,0.00,,,0.05,WUHU216HW,2013-01-12 15:10:00,
2013-01-12 10:14:00,42.8,41.5,30.15,North,0,0.9,1.8,95,0.00,,,0.05,WUHU216HW,2013-01-12 15:14:00,
2013-01-12 10:15:00,42.8,41.5,30.14,North,0,1.1,1.8,95,0.00,,,0.05,WUHU216HW,2013-01-12 15:15:00,
2013-01-12 10:19:00,42.8,41.5,30.14,NNE,23,0.7,2.0,95,0.00,,,0.05,WUHU216HW,2013-01-12 15:19:00,
2013-01-12 10:20:00,42.8,41.5,30.14,NNE,23,0.7,2.0,95,0.00,,,0.05,WUHU216HW,2013-01-12 15:20:00,
2013-01-12 10:21:00,42.8,41.4,30.14,NNE,23,0.9,2.0,95,0.00,,,0.05,WUHU216HW,2013-01-12 15:21:00,
2013-01-12 10:24:00,42.8,41.4,30.14,NNE,23,1.1,2.0,95,0.00,,,0.05,WUHU216HW,2013-01-12 15:24:00,
2013-01-12 10:25:00,42.8,41.4,30.14,NNE,23,0.7,2.0,95,0.00,,,0.05,WUHU216HW,2013-01-12 15:25:00,
2013-01-12 10:26:00,42.8,41.4,30.14,North,0,0.7,2.0,95,0.00,,,0.05,WUHU216HW,2013-01-12 15:26:00,
2013-01-12 10:29:00,42.8,41.4,30.14,ENE,68,0.9,1.8,95,0.00,,,0.05,WUHU216HW,2013-01-12 15:29:00,
2013-01-12 10:30:00,43.0,41.6,30.15,ENE,68,0.9,1.8,95,0.00,,,0.05,WUHU216HW,2013-01-12 15:30:00,
2013-01-12 10:31:00,43.0,41.6,30.15,ENE,68,0.9,1.8,95,0.00,,,0.05,WUHU216HW,2013-01-12 15:31:00,
2013-01-12 10:34:00,43.0,41.6,30.15,NE,45,0.0,1.1,95,0.00,,,0.05,WUHU216HW,2013-01-12 15:34:00,
2013-01-12 10:35:00,43.0,41.6,30.15,NW,315,0.0,1.1,95,0.00,,,0.05,WUHU216HW,2013-01-12 15:35:00,
2013-01-12 10:36:00,43.0,41.6,30.15,NW,315,0.0,1.1,95,0.00,,,0.05,WUHU216HW,2013-01-12 15:36:00,
2013-01-12 10:40:00,43.0,41.6,30.14,NNE,23,1.1,1.1,95,0.00,,,0.05,WUHU216HW,2013-01-12 15:40:00,
2013-01-12 10:41:00,43.1,41.7,30.14,NNE,23,0.2,1.1,95,0.00,,,0.05,WUHU216HW,2013-01-12 15:41:00,
2013-01-12 10:45:00,43.0,41.6,30.15,North,0,1.3,1.3,95,0.00,,,0.05,WUHU216HW,2013-01-12 15:45:00,
2013-01-12 10:46:00,43.0,41.6,30.15,North,0,1.1,1.3,95,0.00,,,0.05,WUHU216HW,2013-01-12 15:46:00,
2013-01-12 10:50:00,42.9,41.6,30.15,NNW,338,0.7,1.8,95,0.00,,,0.05,WUHU216HW,2013-01-12 15:50:00,
2013-01-12 10:51:00,42.9,41.6,30.14,NNW,338,1.1,1.8,95,0.00,,,0.05,WUHU216HW,2013-01-12 15:51:00,
2013-01-12 10:55:00,42.9,41.6,30.14,WNW,293,0.4,1.8,95,0.00,,,0.05,WUHU216HW,2013-01-12 15:55:00,
2013-01-12 10:56:00,42.9,41.5,30.14,West,270,0.9,1.8,95,0.00,,,0.05,WUHU216HW,2013-01-12 15:56:00,
2013-01-12 10:57:00,42.9,41.5,30.14,West,270,0.4,1.1,95,0.00,,,0.05,WUHU216HW,2013-01-12 15:57:00,
2013-01-12 11:00:00,43.0,41.6,30.14,NNE,23,0.0,1.1,95,0.00,,,0.05,WUHU216HW,2013-01-12 16:00:00,
2013-01-12 11:01:00,43.0,41.6,30.14,ENE,68,0.4,1.1,95,0.00,,,0.05,WUHU216HW,2013-01-12 16:01:00,
2013-01-12 11:02:00,43.0,41.6,30.14,North,0,0.0,1.1,95,0.00,,,0.05,WUHU216HW,2013-01-12 16:02:00,
2013-01-12 11:05:00,43.0,41.6,30.14,NNW,338,0.0,0.9,95,0.00,,,0.05,WUHU216HW,2013-01-12 16:05:00,
2013-01-12 11:06:00,43.0,41.6,30.14,NNW,338,0.0,0.4,95,0.00,,,0.05,WUHU216HW,2013-01-12 16:06:00,
2013-01-12 11:07:00,43.0,41.6,30.14,NNW,338,0.0,0.4,95,0.00,,,0.05,WUHU216HW,2013-01-12 16:07:00,
2013-01-12 11:10:00,43.0,41.6,30.14,NNE,23,0.4,0.4,95,0.00,,,0.05,WUHU216HW,2013-01-12 16:10:00,
2013-01-12 11:11:00,42.9,41.5,30.13,NNE,23,0.2,0.4,95,0.00,,,0.05,WUHU216HW,2013-01-12 16:11:00,
2013-01-12 11:12:00,43.0,41.6,30.14,NNE,23,0.0,0.4,95,0.00,,,0.05,WUHU216HW,2013-01-12 16:12:00,
2013-01-12 11:15:00,43.0,41.6,30.14,NNE,23,0.0,0.4,95,0.00,,,0.05,WUHU216HW,2013-01-12 16:15:00,
2013-01-12 11:16:00,43.0,41.6,30.14,NW,315,0.4,0.4,95,0.00,,,0.05,WUHU216HW,2013-01-12 16:16:00,
2013-01-12 11:17:00,43.0,41.6,30.14,NW,315,0.2,0.4,95,0.00,,,0.05,WUHU216HW,2013-01-12 16:17:00,
2013-01-12 11:20:00,43.0,41.6,30.14,NW,315,0.0,0.4,95,0.00,,,0.05,WUHU216HW,2013-01-12 16:20:00,
2013-01-12 11:21:00,43.0,41.6,30.13,East,90,0.7,0.7,95,0.00,,,0.05,WUHU216HW,2013-01-12 16:21:00,
2013-01-12 11:22:00,43.2,41.8,30.13,ESE,113,0.4,0.7,95,0.00,,,0.05,WUHU216HW,2013-01-12 16:22:00,
2013-01-12 11:26:00,42.9,41.6,30.14,ESE,113,0.0,0.7,95,0.00,,,0.05,WUHU216HW,2013-01-12 16:26:00,
2013-01-12 11:27:00,43.1,41.8,30.13,NNE,23,0.0,0.7,95,0.00,,,0.05,WUHU216HW,2013-01-12 16:27:00,
2013-01-12 11:31:00,43.3,42.0,30.13,North,0,0.0,0.4,95,0.00,,,0.05,WUHU216HW,2013-01-12 16:31:00,
2013-01-12 11:32:00,43.1,41.8,30.13,North,0,0.0,0.4,95,0.00,,,0.05,WUHU216HW,2013-01-12 16:32:00,
2013-01-12 11:36:00,43.3,41.9,30.13,WNW,293,0.7,1.1,95,0.00,,,0.05,WUHU216HW,2013-01-12 16:36:00,
2013-01-12 11:37:00,43.3,41.9,30.13,WNW,293,0.7,1.1,95,0.00,,,0.05,WUHU216HW,2013-01-12 16:37:00,
2013-01-12 11:41:00,43.3,41.9,30.13,WNW,293,0.4,1.1,95,0.00,,,0.05,WUHU216HW,2013-01-12 16:41:00,
2013-01-12 11:42:00,43.3,41.9,30.13,WNW,293,0.4,1.1,95,0.00,,,0.05,WUHU216HW,2013-01-12 16:42:00,
2013-01-12 11:47:00,43.3,41.9,30.13,WNW,293,0.4,0.4,95,0.00,,,0.05,WUHU216HW,2013-01-12 16:47:00,
2013-01-12 11:52:00,43.5,42.1,30.13,ENE,68,0.4,0.4,95,0.00,,,0.05,WUHU216HW,2013-01-12 16:52:00,
2013-01-12 11:57:00,43.5,42.1,30.13,East,90,0.0,0.7,95,0.00,,,0.05,WUHU216HW,2013-01-12 16:57:00,
2013-01-12 12:02:00,43.5,42.1,30.13,WNW,293,0.9,0.9,95,0.00,,,0.05,WUHU216HW,2013-01-12 17:02:00,
2013-01-12 12:03:00,43.5,42.1,30.13,WNW,293,0.9,0.9,95,0.00,,,0.05,WUHU216HW,2013-01-12 17:03:00,
2013-01-12 12:07:00,43.5,42.1,30.13,WNW,293,0.4,0.9,95,0.00,,,0.05,WUHU216HW,2013-01-12 17:07:00,
2013-01-12 12:08:00,43.5,42.1,30.13,WNW,293,0.4,0.9,95,0.00,,,0.05,WUHU216HW,2013-01-12 17:08:00,
2013-01-12 12:12:00,43.4,42.1,30.12,WNW,293,0.2,0.9,95,0.00,,,0.05,WUHU216HW,2013-01-12 17:12:00,
2013-01-12 12:13:00,43.4,42.1,30.12,WNW,293,0.2,0.9,95,0.00,,,0.05,WUHU216HW,2013-01-12 17:13:00,
2013-01-12 12:18:00,43.2,41.9,30.12,NNE,23,0.7,0.7,95,0.00,,,0.05,WUHU216HW,2013-01-12 17:18:00,
2013-01-12 12:23:00,43.4,41.8,30.11,NE,45,0.7,0.7,94,0.00,,,0.05,WUHU216HW,2013-01-12 17:23:00,
2013-01-12 12:28:00,43.4,41.8,30.12,NNE,23,0.4,0.7,94,0.00,,,0.05,WUHU216HW,2013-01-12 17:28:00,
2013-01-12 12:33:00,43.4,41.7,30.12,North,0,0.2,1.1,94,0.00,,,0.05,WUHU216HW,2013-01-12 17:33:00,
2013-01-12 12:34:00,43.6,41.9,30.12,North,0,0.0,1.1,94,0.00,,,0.05,WUHU216HW,2013-01-12 17:34:00,
2013-01-12 12:38:00,43.6,41.9,30.12,North,0,0.7,1.1,94,0.00,,,0.05,WUHU216HW,2013-01-12 17:38:00,
2013-01-12 12:39:00,43.6,41.9,30.12,North,0,1.1,1.1,94,0.00,,,0.05,WUHU216HW,2013-01-12 17:39:00,
2013-01-12 12:43:00,43.6,41.9,30.12,East,90,1.6,2.5,94,0.00,,,0.05,WUHU216HW,2013-01-12 17:43:00,
2013-01-12 12:44:00,43.6,41.9,30.12,East,90,1.6,2.5,94,0.00,,,0.05,WUHU216HW,2013-01-12 17:44:00,
2013-01-12 12:48:00,43.6,41.9,30.12,East,90,1.8,2.5,94,0.00,,,0.05,WUHU216HW,2013-01-12 17:48:00,
2013-01-12 12:49:00,43.6,41.9,30.12,East,90,1.3,2.5,94,0.00,,,0.05,WUHU216HW,2013-01-12 17:49:00,
2013-01-12 12:53:00,43.4,41.7,30.13,ESE,113,0.0,1.8,94,0.00,,,0.05,WUHU216HW,2013-01-12 17:53:00,
2013-01-12 12:54:00,43.6,41.9,30.12,ESE,113,0.0,1.8,94,0.00,,,0.05,WUHU216HW,2013-01-12 17:54:00,
2013-01-12 12:58:00,43.7,42.0,30.13,South,180,0.9,1.3,94,0.00,,,0.05,WUHU216HW,2013-01-12 17:58:00,
2013-01-12 12:59:00,43.7,42.0,30.13,SSW,203,1.3,1.3,94,0.00,,,0.05,WUHU216HW,2013-01-12 17:59:00,
2013-01-12 13:03:00,43.7,42.0,30.13,SSW,203,0.9,1.3,94,0.00,,,0.05,WUHU216HW,2013-01-12 18:03:00,
2013-01-12 13:04:00,43.7,42.0,30.13,SSW,203,0.0,1.3,94,0.00,,,0.05,WUHU216HW,2013-01-12 18:04:00,
2013-01-12 13:05:00,43.7,42.0,30.13,SSW,203,0.0,0.0,94,0.00,,,0.05,WUHU216HW,2013-01-12 18:05:00,
2013-01-12 13:08:00,43.7,42.0,30.13,SSW,203,0.0,1.3,94,0.00,,,0.05,WUHU216HW,2013-01-12 18:08:00,
2013-01-12 13:09:00,43.7,42.0,30.13,SSW,203,0.0,1.3,94,0.00,,,0.05,WUHU216HW,2013-01-12 18:09:00,
2013-01-12 13:14:00,43.7,42.0,30.13,SSW,203,0.0,0.0,94,0.00,,,0.05,WUHU216HW,2013-01-12 18:14:00,
2013-01-12 13:35:00,44.0,42.4,30.14,WSW,248,0.4,0.4,94,0.00,,,0.05,WUHU216HW,2013-01-12 18:35:00,
2013-01-12 13:40:00,44.0,42.4,30.14,WSW,248,0.7,0.7,94,0.00,,,0.05,WUHU216HW,2013-01-12 18:40:00,
2013-01-12 13:45:00,44.2,42.6,30.14,South,180,1.1,1.1,94,0.00,,,0.05,WUHU216HW,2013-01-12 18:45:00,
2013-01-12 13:50:00,44.2,42.6,30.13,South,180,2.5,2.5,94,0.00,,,0.05,WUHU216HW,2013-01-12 18:50:00,
2013-01-12 13:55:00,44.2,42.6,30.13,South,180,2.5,2.5,94,0.00,,,0.05,WUHU216HW,2013-01-12 18:55:00,
2013-01-12 14:00:00,44.0,42.6,30.14,SE,135,1.1,1.1,95,0.00,,,0.05,WUHU216HW,2013-01-12 19:00:00,
2013-01-12 14:05:00,43.8,42.1,30.13,SW,225,2.5,2.5,94,0.00,,,0.05,WUHU216HW,2013-01-12 19:05:00,
2013-01-12 14:06:00,43.8,42.1,30.13,SW,225,2.5,2.5,94,0.00,,,0.05,WUHU216HW,2013-01-12 19:06:00,
2013-01-12 14:10:00,43.8,41.9,30.13,SSE,158,0.2,2.5,93,0.00,,,0.05,WUHU216HW,2013-01-12 19:10:00,
2013-01-12 14:11:00,43.8,41.9,30.13,SSE,158,0.2,2.5,93,0.00,,,0.05,WUHU216HW,2013-01-12 19:11:00,
2013-01-12 14:15:00,43.8,41.9,30.13,SE,135,0.0,1.8,93,0.00,,,0.05,WUHU216HW,2013-01-12 19:15:00,
2013-01-12 14:16:00,43.8,41.9,30.13,SE,135,0.0,1.3,93,0.00,,,0.05,WUHU216HW,2013-01-12 19:16:00,
2013-01-12 14:21:00,43.8,41.9,30.13,SE,135,0.0,0.7,93,0.00,,,0.05,WUHU216HW,2013-01-12 19:21:00,
2013-01-12 14:26:00,43.6,41.7,30.13,SW,225,0.4,0.4,93,0.00,,,0.05,WUHU216HW,2013-01-12 19:26:00,
2013-01-12 14:30:00,43.8,41.9,30.13,SW,225,0.4,0.4,93,0.00,,,0.05,WUHU216HW,2013-01-12 19:30:00,
2013-01-12 14:31:00,43.8,41.9,30.13,SW,225,0.4,0.9,93,0.00,,,0.05,WUHU216HW,2013-01-12 19:31:00,
2013-01-12 14:36:00,43.8,41.9,30.13,SW,225,0.4,0.9,93,0.00,,,0.05,WUHU216HW,2013-01-12 19:36:00,
2013-01-12 15:00:00,44.0,42.3,30.13,SSW,203,0.7,0.7,94,0.00,,,0.05,WUHU216HW,2013-01-12 20:00:00,
2013-01-12 15:05:00,43.8,41.9,30.13,NNE,23,1.3,1.6,93,0.00,,,0.05,WUHU216HW,2013-01-12 20:05:00,
2013-01-12 15:10:00,43.6,41.7,30.13,NNE,23,0.7,1.6,93,0.00,,,0.05,WUHU216HW,2013-01-12 20:10:00,
2013-01-12 15:15:00,43.5,41.6,30.13,SSE,158,0.0,1.3,93,0.00,,,0.05,WUHU216HW,2013-01-12 20:15:00,
2013-01-12 15:16:00,43.5,41.6,30.13,SSE,158,0.0,1.3,93,0.00,,,0.05,WUHU216HW,2013-01-12 20:16:00,
2013-01-12 15:20:00,43.5,41.6,30.12,SE,135,1.1,1.3,93,0.00,,,0.05,WUHU216HW,2013-01-12 20:20:00,
2013-01-12 15:21:00,43.5,41.6,30.12,SE,135,1.1,1.3,93,0.00,,,0.05,WUHU216HW,2013-01-12 20:21:00,
2013-01-12 15:25:00,43.5,41.6,30.12,ESE,113,1.1,1.8,93,0.00,,,0.05,WUHU216HW,2013-01-12 20:25:00,
2013-01-12 15:26:00,43.5,41.6,30.12,ESE,113,1.1,1.8,93,0.00,,,0.05,WUHU216HW,2013-01-12 20:26:00,
2013-01-12 15:30:00,43.3,41.4,30.13,ESE,113,0.2,1.8,93,0.00,,,0.05,WUHU216HW,2013-01-12 20:30:00,
2013-01-12 15:31:00,43.3,41.4,30.13,ESE,113,0.2,1.8,93,0.00,,,0.05,WUHU216HW,2013-01-12 20:31:00,
2013-01-12 15:35:00,43.5,41.6,30.13,ESE,113,0.9,1.1,93,0.00,,,0.05,WUHU216HW,2013-01-12 20:35:00,
2013-01-12 15:36:00,43.5,41.6,30.13,ESE,113,0.9,1.1,93,0.00,,,0.05,WUHU216HW,2013-01-12 20:36:00,
2013-01-12 15:41:00,43.3,41.4,30.13,ESE,113,0.2,1.3,93,0.00,,,0.05,WUHU216HW,2013-01-12 20:41:00,
2013-01-12 15:42:00,43.5,41.6,30.13,SE,135,0.2,1.3,93,0.00,,,0.05,WUHU216HW,2013-01-12 20:42:00,
2013-01-12 15:46:00,43.5,41.6,30.13,SE,135,0.9,1.3,93,0.00,,,0.05,WUHU216HW,2013-01-12 20:46:00,
2013-01-12 15:47:00,43.5,41.6,30.13,SE,135,0.4,1.3,93,0.00,,,0.05,WUHU216HW,2013-01-12 20:47:00,
2013-01-12 15:51:00,43.3,41.4,30.13,ESE,113,0.9,0.9,93,0.00,,,0.05,WUHU216HW,2013-01-12 20:51:00,
2013-01-12 15:52:00,43.3,41.4,30.13,East,90,1.8,1.8,93,0.00,,,0.05,WUHU216HW,2013-01-12 20:52:00,
2013-01-12 15:56:00,43.1,41.2,30.12,East,90,0.4,1.8,93,0.00,,,0.05,WUHU216HW,2013-01-12 20:56:00,
2013-01-12 15:57:00,43.2,41.2,30.12,SSE,158,0.7,1.8,93,0.00,,,0.05,WUHU216HW,2013-01-12 20:57:00,
2013-01-12 16:01:00,43.2,41.2,30.12,East,90,1.1,1.8,93,0.00,,,0.05,WUHU216HW,2013-01-12 21:01:00,
2013-01-12 16:02:00,43.2,41.2,30.12,ESE,113,1.8,1.8,93,0.00,,,0.05,WUHU216HW,2013-01-12 21:02:00,
2013-01-12 16:06:00,43.2,41.2,30.12,ESE,113,0.9,2.0,93,0.00,,,0.05,WUHU216HW,2013-01-12 21:06:00,
2013-01-12 16:07:00,43.2,41.2,30.12,SE,135,0.7,2.0,93,0.00,,,0.05,WUHU216HW,2013-01-12 21:07:00,
2013-01-12 16:11:00,43.0,41.0,30.13,ESE,113,1.1,2.0,93,0.00,,,0.05,WUHU216HW,2013-01-12 21:11:00,
2013-01-12 16:12:00,43.0,41.0,30.13,East,90,1.1,2.0,93,0.00,,,0.05,WUHU216HW,2013-01-12 21:12:00,
2013-01-12 16:16:00,43.0,41.0,30.13,SSE,158,1.1,1.3,93,0.00,,,0.05,WUHU216HW,2013-01-12 21:16:00,
2013-01-12 16:17:00,43.0,41.0,30.13,SSE,158,1.1,1.3,93,0.00,,,0.05,WUHU216HW,2013-01-12 21:17:00,
2013-01-12 16:21:00,42.8,40.9,30.14,ENE,68,0.0,1.3,93,0.00,,,0.05,WUHU216HW,2013-01-12 21:21:00,
2013-01-12 16:22:00,42.8,40.9,30.14,ENE,68,0.0,1.3,93,0.00,,,0.05,WUHU216HW,2013-01-12 21:22:00,
2013-01-12 16:26:00,42.8,40.9,30.13,SE,135,0.9,1.3,93,0.00,,,0.05,WUHU216HW,2013-01-12 21:26:00,
2013-01-12 16:27:00,42.8,40.9,30.13,SE,135,0.9,1.1,93,0.00,,,0.05,WUHU216HW,2013-01-12 21:27:00,
2013-01-12 16:31:00,42.8,40.9,30.13,SSE,158,0.0,1.1,93,0.00,,,0.05,WUHU216HW,2013-01-12 21:31:00,
2013-01-12 16:32:00,42.8,40.9,30.13,SSE,158,0.0,1.1,93,0.00,,,0.05,WUHU216HW,2013-01-12 21:32:00,
2013-01-12 16:37:00,42.8,40.9,30.14,East,90,0.4,1.1,93,0.00,,,0.05,WUHU216HW,2013-01-12 21:37:00,
2013-01-12 16:42:00,42.7,40.8,30.14,East,90,0.0,0.9,93,0.00,,,0.05,WUHU216HW,2013-01-12 21:42:00,
2013-01-12 16:43:00,42.8,40.9,30.14,East,90,0.0,0.4,93,0.00,,,0.05,WUHU216HW,2013-01-12 21:43:00,
2013-01-12 16:47:00,42.7,40.8,30.14,ENE,68,1.1,1.1,93,0.00,,,0.05,WUHU216HW,2013-01-12 21:47:00,
2013-01-12 16:48:00,42.7,40.8,30.14,East,90,1.1,1.1,93,0.00,,,0.05,WUHU216HW,2013-01-12 21:48:00,
2013-01-12 16:52:00,42.7,40.8,30.14,East,90,0.0,1.1,93,0.00,,,0.05,WUHU216HW,2013-01-12 21:52:00,
2013-01-12 16:53:00,42.7,40.8,30.15,East,90,0.2,1.1,93,0.00,,,0.05,WUHU216HW,2013-01-12 21:53:00,
2013-01-12 16:57:00,42.5,40.6,30.15,East,90,0.7,1.6,93,0.00,,,0.05,WUHU216HW,2013-01-12 21:57:00,
2013-01-12 16:58:00,42.5,40.6,30.15,NE,45,0.7,1.6,93,0.00,,,0.05,WUHU216HW,2013-01-12 21:58:00,
2013-01-12 17:02:00,42.6,40.6,30.16,NE,45,0.7,1.6,93,0.00,,,0.05,WUHU216HW,2013-01-12 22:02:00,
2013-01-12 17:03:00,42.6,40.6,30.16,NE,45,0.9,1.6,93,0.00,,,0.05,WUHU216HW,2013-01-12 22:03:00,
2013-01-12 17:07:00,42.6,40.6,30.16,NE,45,0.0,0.9,93,0.00,,,0.05,WUHU216HW,2013-01-12 22:07:00,
2013-01-12 17:08:00,42.6,40.6,30.16,NE,45,0.2,0.9,93,0.00,,,0.05,WUHU216HW,2013-01-12 22:08:00,
2013-01-12 17:12:00,42.6,40.7,30.16,ENE,68,0.0,0.9,93,0.00,,,0.05,WUHU216HW,2013-01-12 22:12:00,
2013-01-12 17:13:00,42.6,40.7,30.16,ENE,68,0.0,0.9,93,0.00,,,0.05,WUHU216HW,2013-01-12 22:13:00,
2013-01-12 17:17:00,42.6,40.7,30.16,NNE,23,0.0,0.7,93,0.00,,,0.05,WUHU216HW,2013-01-12 22:17:00,
2013-01-12 17:18:00,42.6,40.7,30.16,NNE,23,0.0,0.7,93,0.00,,,0.05,WUHU216HW,2013-01-12 22:18:00,
2013-01-12 17:22:00,42.6,40.7,30.15,NNE,23,0.0,0.7,93,0.00,,,0.05,WUHU216HW,2013-01-12 22:22:00,
2013-01-12 17:23:00,42.6,40.7,30.15,NNE,23,0.0,0.7,93,0.00,,,0.05,WUHU216HW,2013-01-12 22:23:00,
2013-01-12 17:24:00,42.6,40.7,30.15,NNE,23,0.0,0.7,93,0.00,,,0.05,WUHU216HW,2013-01-12 22:24:00,
2013-01-12 17:28:00,42.6,40.7,30.15,ENE,68,0.4,1.3,93,0.00,,,0.05,WUHU216HW,2013-01-12 22:28:00,
2013-01-12 17:29:00,42.6,40.7,30.15,East,90,1.1,1.3,93,0.00,,,0.05,WUHU216HW,2013-01-12 22:29:00,
2013-01-12 17:33:00,42.6,40.7,30.16,East,90,1.3,1.6,93,0.00,,,0.05,WUHU216HW,2013-01-12 22:33:00,
2013-01-12 17:34:00,42.6,40.7,30.16,East,90,1.6,1.6,93,0.00,,,0.05,WUHU216HW,2013-01-12 22:34:00,
2013-01-12 17:38:00,42.4,40.5,30.16,SE,135,2.2,2.2,93,0.00,,,0.05,WUHU216HW,2013-01-12 22:38:00,
2013-01-12 17:39:00,42.6,40.7,30.16,ESE,113,1.1,2.2,93,0.00,,,0.05,WUHU216HW,2013-01-12 22:39:00,
2013-01-12 17:40:00,42.4,40.5,30.15,SE,135,1.8,2.2,93,0.00,,,0.05,WUHU216HW,2013-01-12 22:40:00,
2013-01-12 17:43:00,42.5,40.8,30.15,ESE,113,2.0,2.2,94,0.00,,,0.05,WUHU216HW,2013-01-12 22:43:00,
2013-01-12 17:44:00,42.5,40.8,30.15,ESE,113,1.8,2.2,94,0.00,,,0.05,WUHU216HW,2013-01-12 22:44:00,
2013-01-12 17:45:00,42.5,40.8,30.15,ESE,113,2.0,2.2,94,0.00,,,0.05,WUHU216HW,2013-01-12 22:45:00,
2013-01-12 17:48:00,42.5,40.8,30.15,East,90,0.4,2.7,94,0.00,,,0.05,WUHU216HW,2013-01-12 22:48:00,
2013-01-12 17:49:00,42.5,40.8,30.15,East,90,0.4,2.7,94,0.00,,,0.05,WUHU216HW,2013-01-12 22:49:00,
2013-01-12 17:50:00,42.5,40.5,30.15,East,90,0.0,2.7,93,0.00,,,0.05,WUHU216HW,2013-01-12 22:50:00,
2013-01-12 17:53:00,42.5,40.6,30.16,ENE,68,0.9,2.7,93,0.00,,,0.05,WUHU216HW,2013-01-12 22:53:00,
2013-01-12 17:54:00,42.5,40.6,30.16,ENE,68,0.9,2.7,93,0.00,,,0.05,WUHU216HW,2013-01-12 22:54:00,
2013-01-12 17:55:00,42.3,40.4,30.16,East,90,0.9,2.7,93,0.00,,,0.05,WUHU216HW,2013-01-12 22:55:00,
2013-01-12 17:58:00,42.3,40.6,30.15,SE,135,1.1,1.8,94,0.00,,,0.05,WUHU216HW,2013-01-12 22:58:00,
2013-01-12 17:59:00,42.3,40.6,30.15,SE,135,1.1,1.8,94,0.00,,,0.05,WUHU216HW,2013-01-12 22:59:00,
2013-01-12 18:00:00,42.3,40.6,30.15,ESE,113,1.3,1.8,94,0.00,,,0.05,WUHU216HW,2013-01-12 23:00:00,
2013-01-12 18:03:00,42.3,40.7,30.15,ESE,113,0.4,2.7,94,0.00,,,0.05,WUHU216HW,2013-01-12 23:03:00,
2013-01-12 18:04:00,42.3,40.7,30.15,ESE,113,0.4,2.7,94,0.00,,,0.05,WUHU216HW,2013-01-12 23:04:00,
2013-01-12 18:05:00,42.3,40.7,30.15,ESE,113,0.9,2.7,94,0.00,,,0.05,WUHU216HW,2013-01-12 23:05:00,
2013-01-12 18:09:00,42.3,40.7,30.15,ESE,113,0.0,2.7,94,0.00,,,0.05,WUHU216HW,2013-01-12 23:09:00,
2013-01-12 18:10:00,42.3,40.7,30.15,SE,135,1.3,2.7,94,0.00,,,0.05,WUHU216HW,2013-01-12 23:10:00,
2013-01-12 18:14:00,42.1,40.5,30.15,ESE,113,1.8,3.1,94,0.00,,,0.05,WUHU216HW,2013-01-12 23:14:00,
2013-01-12 18:16:00,42.1,40.5,30.15,SE,135,1.3,3.1,94,0.00,,,0.05,WUHU216HW,2013-01-12 23:16:00,
2013-01-12 18:19:00,42.1,40.5,30.15,SSE,158,0.2,3.1,94,0.00,,,0.05,WUHU216HW,2013-01-12 23:19:00,
2013-01-12 18:21:00,42.2,40.5,30.15,ESE,113,1.1,3.1,94,0.00,,,0.05,WUHU216HW,2013-01-12 23:21:00,
2013-01-12 18:24:00,42.2,40.5,30.15,ESE,113,0.0,2.5,94,0.00,,,0.05,WUHU216HW,2013-01-12 23:24:00,
2013-01-12 18:26:00,42.2,40.5,30.15,NE,45,0.4,2.5,94,0.00,,,0.05,WUHU216HW,2013-01-12 23:26:00,
2013-01-12 18:29:00,42.2,40.5,30.14,SE,135,1.1,2.5,94,0.00,,,0.05,WUHU216HW,2013-01-12 23:29:00,
2013-01-12 18:31:00,42.2,40.5,30.14,SE,135,0.4,1.1,94,0.00,,,0.05,WUHU216HW,2013-01-12 23:31:00,
2013-01-12 18:34:00,42.2,40.5,30.14,SE,135,0.0,1.1,94,0.00,,,0.05,WUHU216HW,2013-01-12 23:34:00,
2013-01-12 18:35:00,42.2,40.5,30.14,SE,135,0.0,1.1,94,0.00,,,0.05,WUHU216HW,2013-01-12 23:35:00,
2013-01-12 18:36:00,42.2,40.6,30.14,SE,135,0.0,1.1,94,0.00,,,0.05,WUHU216HW,2013-01-12 23:36:00,
2013-01-12 18:39:00,42.2,40.6,30.14,SE,135,2.2,2.2,94,0.00,,,0.05,WUHU216HW,2013-01-12 23:39:00,
2013-01-12 18:40:00,42.2,40.6,30.14,SE,135,2.2,2.2,94,0.00,,,0.05,WUHU216HW,2013-01-12 23:40:00,
2013-01-12 18:41:00,42.2,40.6,30.14,SSE,158,1.1,2.2,94,0.00,,,0.05,WUHU216HW,2013-01-12 23:41:00,
2013-01-12 18:44:00,42.1,40.5,30.14,SE,135,2.0,2.2,94,0.00,,,0.05,WUHU216HW,2013-01-12 23:44:00,
2013-01-12 18:45:00,42.2,40.6,30.14,ESE,113,2.5,2.5,94,0.00,,,0.05,WUHU216HW,2013-01-12 23:45:00,
2013-01-12 18:46:00,42.2,40.6,30.14,ESE,113,1.1,2.5,94,0.00,,,0.05,WUHU216HW,2013-01-12 23:46:00,
2013-01-12 18:49:00,42.1,40.5,30.14,SSW,203,0.4,2.5,94,0.00,,,0.05,WUHU216HW,2013-01-12 23:49:00,
2013-01-12 18:50:00,42.2,40.6,30.14,South,180,0.4,2.5,94,0.00,,,0.05,WUHU216HW,2013-01-12 23:50:00,
2013-01-12 18:51:00,42.2,40.6,30.14,South,180,0.7,2.5,94,0.00,,,0.05,WUHU216HW,2013-01-12 23:51:00,
2013-01-12 18:54:00,42.2,40.5,30.13,South,180,0.4,2.5,94,0.00,,,0.05,WUHU216HW,2013-01-12 23:54:00,
2013-01-12 18:55:00,42.3,40.6,30.13,ESE,113,1.1,1.1,94,0.00,,,0.05,WUHU216HW,2013-01-12 23:55:00,
2013-01-12 18:57:00,42.3,40.6,30.14,South,180,1.1,1.1,94,0.00,,,0.05,WUHU216HW,2013-01-12 23:57:00,
2013-01-12 18:59:00,42.3,40.6,30.14,NE,45,0.9,1.1,94,0.00,,,0.05,WUHU216HW,2013-01-12 23:59:00,
2013-01-12 19:00:00,42.3,40.6,30.14,NE,45,0.9,1.1,94,0.00,,,0.05,WUHU216HW,2013-01-13 00:00:00,
2013-01-12 19:02:00,42.2,40.5,30.14,NE,45,0.0,1.1,94,0.00,,,0.05,WUHU216HW,2013-01-13 00:02:00,
2013-01-12 19:04:00,42.3,40.6,30.13,NE,45,0.0,1.1,94,0.00,,,0.05,WUHU216HW,2013-01-13 00:04:00,
2013-01-12 19:05:00,42.3,40.6,30.13,NE,45,0.0,1.1,94,0.00,,,0.05,WUHU216HW,2013-01-13 00:05:00,
2013-01-12 19:06:00,42.3,40.6,30.13,NE,45,0.0,1.1,94,0.00,,,0.05,WUHU216HW,2013-01-13 00:06:00,
2013-01-12 19:07:00,42.3,40.6,30.13,NE,45,0.4,0.9,94,0.00,,,0.05,WUHU216HW,2013-01-13 00:07:00,
2013-01-12 19:10:00,42.3,40.7,30.13,NE,45,0.4,0.7,94,0.00,,,0.05,WUHU216HW,2013-01-13 00:10:00,
2013-01-12 19:11:00,42.3,40.7,30.13,ESE,113,0.0,0.7,94,0.00,,,0.05,WUHU216HW,2013-01-13 00:11:00,
2013-01-12 19:12:00,42.2,40.6,30.13,ESE,113,0.4,0.7,94,0.00,,,0.05,WUHU216HW,2013-01-13 00:12:00,
2013-01-12 19:15:00,42.2,40.6,30.13,SE,135,0.4,0.7,94,0.00,,,0.05,WUHU216HW,2013-01-13 00:15:00,
2013-01-12 19:16:00,42.2,40.6,30.13,South,180,0.9,1.1,94,0.00,,,0.05,WUHU216HW,2013-01-13 00:16:00,
2013-01-12 19:17:00,42.2,40.6,30.13,South,180,1.1,1.1,94,0.00,,,0.05,WUHU216HW,2013-01-13 00:17:00,
2013-01-12 19:20:00,42.2,40.6,30.14,South,180,0.7,1.1,94,0.00,,,0.05,WUHU216HW,2013-01-13 00:20:00,
2013-01-12 19:21:00,42.2,40.6,30.14,South,180,0.7,1.1,94,0.00,,,0.05,WUHU216HW,2013-01-13 00:21:00,
2013-01-12 19:22:00,42.2,40.6,30.14,South,180,0.0,1.1,94,0.00,,,0.05,WUHU216HW,2013-01-13 00:22:00,
2013-01-12 19:25:00,42.3,40.6,30.14,South,180,0.0,1.1,94,0.00,,,0.05,WUHU216HW,2013-01-13 00:25:00,
2013-01-12 19:26:00,42.3,40.6,30.14,South,180,0.0,1.1,94,0.00,,,0.05,WUHU216HW,2013-01-13 00:26:00,
2013-01-12 19:27:00,42.3,40.6,30.14,South,180,0.0,0.7,94,0.00,,,0.05,WUHU216HW,2013-01-13 00:27:00,
2013-01-12 19:30:00,42.3,40.6,30.15,South,180,0.4,0.4,94,0.00,,,0.05,WUHU216HW,2013-01-13 00:30:00,
2013-01-12 19:31:00,42.3,40.6,30.15,South,180,0.2,0.4,94,0.00,,,0.05,WUHU216HW,2013-01-13 00:31:00,
2013-01-12 19:34:00,42.3,40.6,30.15,South,180,0.4,0.7,94,0.00,,,0.05,WUHU216HW,2013-01-13 00:34:00,
2013-01-12 19:36:00,42.3,40.6,30.15,South,180,0.2,0.7,94,0.00,,,0.05,WUHU216HW,2013-01-13 00:36:00,
2013-01-12 19:39:00,42.3,40.7,30.15,SSW,203,0.9,0.9,94,0.00,,,0.05,WUHU216HW,2013-01-13 00:39:00,
2013-01-12 19:41:00,42.3,40.7,30.15,SSW,203,0.7,0.9,94,0.00,,,0.05,WUHU216HW,2013-01-13 00:41:00,
2013-01-12 19:42:00,42.3,40.7,30.15,SSW,203,0.7,0.9,94,0.00,,,0.05,WUHU216HW,2013-01-13 00:42:00,
2013-01-12 19:44:00,42.3,40.7,30.15,South,180,1.3,1.3,94,0.00,,,0.05,WUHU216HW,2013-01-13 00:44:00,
2013-01-12 19:46:00,42.3,40.7,30.14,SE,135,0.7,1.6,94,0.00,,,0.05,WUHU216HW,2013-01-13 00:46:00,
2013-01-12 19:47:00,42.3,40.7,30.14,SE,135,0.7,1.6,94,0.00,,,0.05,WUHU216HW,2013-01-13 00:47:00,
2013-01-12 19:49:00,42.3,40.7,30.14,SSE,158,0.4,1.6,94,0.00,,,0.05,WUHU216HW,2013-01-13 00:49:00,
2013-01-12 19:51:00,42.3,40.7,30.14,SE,135,0.0,1.6,94,0.00,,,0.05,WUHU216HW,2013-01-13 00:51:00,
2013-01-12 19:52:00,42.3,40.7,30.14,SE,135,0.0,1.6,94,0.00,,,0.05,WUHU216HW,2013-01-13 00:52:00,
2013-01-12 19:55:00,42.4,40.7,30.14,SSE,158,0.0,1.6,94,0.00,,,0.05,WUHU216HW,2013-01-13 00:55:00,
2013-01-12 19:56:00,42.4,40.7,30.15,SW,225,1.8,1.8,94,0.00,,,0.05,WUHU216HW,2013-01-13 00:56:00,
2013-01-12 19:57:00,42.4,40.7,30.15,SW,225,1.8,1.8,94,0.00,,,0.05,WUHU216HW,2013-01-13 00:57:00,
2013-01-12 20:00:00,42.4,40.7,30.14,WSW,248,0.7,1.8,94,0.00,,,0.05,WUHU216HW,2013-01-13 01:00:00,
2013-01-12 20:01:00,42.4,40.7,30.14,WSW,248,2.5,2.5,94,0.00,,,0.05,WUHU216HW,2013-01-13 01:01:00,
2013-01-12 20:02:00,42.4,40.7,30.15,WSW,248,1.8,2.5,94,0.00,,,0.05,WUHU216HW,2013-01-13 01:02:00,
2013-01-12 20:05:00,42.4,40.7,30.15,WSW,248,0.7,3.4,94,0.00,,,0.05,WUHU216HW,2013-01-13 01:05:00,
2013-01-12 20:06:00,42.4,40.7,30.15,WSW,248,1.1,3.4,94,0.00,,,0.05,WUHU216HW,2013-01-13 01:06:00,
2013-01-12 20:07:00,42.4,40.8,30.15,WSW,248,1.1,3.4,94,0.00,,,0.05,WUHU216HW,2013-01-13 01:07:00,
2013-01-12 20:10:00,42.4,40.8,30.15,SW,225,0.9,3.4,94,0.00,,,0.05,WUHU216HW,2013-01-13 01:10:00,
2013-01-12 20:11:00,42.4,40.8,30.15,SW,225,0.7,3.4,94,0.00,,,0.05,WUHU216HW,2013-01-13 01:11:00,
2013-01-12 20:12:00,42.4,40.8,30.15,WNW,293,1.1,3.4,94,0.00,,,0.05,WUHU216HW,2013-01-13 01:12:00,
2013-01-12 20:16:00,42.4,40.8,30.15,WSW,248,0.0,1.8,94,0.00,,,0.05,WUHU216HW,2013-01-13 01:16:00,
2013-01-12 20:18:00,42.4,40.8,30.15,SSW,203,0.4,1.3,94,0.00,,,0.05,WUHU216HW,2013-01-13 01:18:00,
2013-01-12 20:21:00,42.4,40.8,30.14,SE,135,1.1,1.6,94,0.00,,,0.05,WUHU216HW,2013-01-13 01:21:00,
2013-01-12 20:23:00,42.5,40.8,30.14,SE,135,0.7,1.6,94,0.00,,,0.05,WUHU216HW,2013-01-13 01:23:00,
2013-01-12 20:26:00,42.5,40.8,30.14,SSW,203,0.7,1.6,94,0.00,,,0.05,WUHU216HW,2013-01-13 01:26:00,
2013-01-12 20:27:00,42.5,40.8,30.14,SSW,203,0.2,1.6,94,0.00,,,0.05,WUHU216HW,2013-01-13 01:27:00,
2013-01-12 20:28:00,42.3,40.6,30.14,SW,225,0.4,1.3,94,0.00,,,0.05,WUHU216HW,2013-01-13 01:28:00,
2013-01-12 20:31:00,42.3,40.6,30.14,SW,225,0.0,1.3,94,0.00,,,0.05,WUHU216HW,2013-01-13 01:31:00,
2013-01-12 20:32:00,42.3,40.6,30.14,SW,225,0.0,1.3,94,0.00,,,0.05,WUHU216HW,2013-01-13 01:32:00,
2013-01-12 20:33:00,42.3,40.6,30.13,South,180,1.6,1.6,94,0.00,,,0.05,WUHU216HW,2013-01-13 01:33:00,
2013-01-12 20:36:00,42.5,40.9,30.13,SSE,158,0.9,1.6,94,0.00,,,0.05,WUHU216HW,2013-01-13 01:36:00,
2013-01-12 20:37:00,42.3,40.7,30.13,SSW,203,1.3,1.6,94,0.00,,,0.05,WUHU216HW,2013-01-13 01:37:00,
2013-01-12 20:38:00,42.3,40.7,30.13,South,180,2.2,2.2,94,0.00,,,0.05,WUHU216HW,2013-01-13 01:38:00,
2013-01-12 20:41:00,42.3,40.7,30.13,SSW,203,1.6,2.2,94,0.00,,,0.05,WUHU216HW,2013-01-13 01:41:00,
2013-01-12 20:42:00,42.3,40.7,30.13,South,180,0.4,2.2,94,0.00,,,0.05,WUHU216HW,2013-01-13 01:42:00,
2013-01-12 20:43:00,42.5,40.9,30.13,South,180,0.2,2.2,94,0.00,,,0.05,WUHU216HW,2013-01-13 01:43:00,
2013-01-12 20:46:00,42.3,40.7,30.13,South,180,1.6,2.2,94,0.00,,,0.05,WUHU216HW,2013-01-13 01:46:00,
2013-01-12 20:47:00,42.3,40.7,30.13,SSE,158,1.3,2.2,94,0.00,,,0.05,WUHU216HW,2013-01-13 01:47:00,
2013-01-12 20:48:00,42.5,40.9,30.13,SSE,158,1.1,1.6,94,0.00,,,0.05,WUHU216HW,2013-01-13 01:48:00,
2013-01-12 20:52:00,42.6,40.9,30.13,SW,225,0.7,1.6,94,0.00,,,0.05,WUHU216HW,2013-01-13 01:52:00,
2013-01-12 20:53:00,42.6,40.9,30.13,SW,225,0.4,1.6,94,0.00,,,0.05,WUHU216HW,2013-01-13 01:53:00,
2013-01-12 20:54:00,42.6,40.9,30.13,SW,225,0.4,1.6,94,0.00,,,0.05,WUHU216HW,2013-01-13 01:54:00,
2013-01-12 20:57:00,42.6,40.9,30.13,West,270,1.3,1.3,94,0.00,,,0.05,WUHU216HW,2013-01-13 01:57:00,
2013-01-12 20:58:00,42.6,41.2,30.13,SSW,203,1.3,1.3,95,0.00,,,0.05,WUHU216HW,2013-01-13 01:58:00,
2013-01-12 20:59:00,42.6,41.2,30.13,SSW,203,1.3,1.3,95,0.00,,,0.05,WUHU216HW,2013-01-13 01:59:00,
2013-01-12 21:02:00,42.6,40.9,30.13,WNW,293,2.5,2.5,94,0.00,,,0.05,WUHU216HW,2013-01-13 02:02:00,
2013-01-12 21:03:00,42.6,40.9,30.13,WSW,248,1.8,2.5,94,0.00,,,0.05,WUHU216HW,2013-01-13 02:03:00,
2013-01-12 21:04:00,42.6,40.9,30.13,WSW,248,1.8,2.5,94,0.00,,,0.05,WUHU216HW,2013-01-13 02:04:00,
2013-01-12 21:07:00,42.4,40.8,30.13,SSW,203,0.9,2.5,94,0.00,,,0.05,WUHU216HW,2013-01-13 02:07:00,
2013-01-12 21:08:00,42.4,40.8,30.13,SW,225,1.1,2.5,94,0.00,,,0.05,WUHU216HW,2013-01-13 02:08:00,
2013-01-12 21:09:00,42.4,40.8,30.13,SW,225,0.4,2.5,94,0.00,,,0.05,WUHU216HW,2013-01-13 02:09:00,
2013-01-12 21:12:00,42.4,40.8,30.13,SSW,203,2.5,2.5,94,0.00,,,0.05,WUHU216HW,2013-01-13 02:12:00,
2013-01-12 21:14:00,42.4,40.8,30.13,South,180,2.5,2.5,94,0.00,,,0.05,WUHU216HW,2013-01-13 02:14:00,
2013-01-12 21:17:00,42.4,40.8,30.13,SSW,203,0.7,2.5,94,0.00,,,0.05,WUHU216HW,2013-01-13 02:17:00,
2013-01-12 21:18:00,42.4,40.8,30.13,SSW,203,0.7,2.5,94,0.00,,,0.05,WUHU216HW,2013-01-13 02:18:00,
2013-01-12 21:19:00,42.4,40.8,30.13,SSW,203,0.4,2.5,94,0.00,,,0.05,WUHU216HW,2013-01-13 02:19:00,
2013-01-12 21:22:00,42.4,40.8,30.13,SSW,203,3.4,3.4,94,0.00,,,0.05,WUHU216HW,2013-01-13 02:22:00,
2013-01-12 21:23:00,42.4,40.8,30.13,SSW,203,3.4,3.4,94,0.00,,,0.05,WUHU216HW,2013-01-13 02:23:00,
2013-01-12 21:24:00,42.4,41.0,30.13,SW,225,0.4,3.4,95,0.00,,,0.05,WUHU216HW,2013-01-13 02:24:00,
2013-01-12 21:28:00,42.2,40.8,30.12,WSW,248,0.0,3.4,95,0.00,,,0.05,WUHU216HW,2013-01-13 02:28:00,
2013-01-12 21:29:00,42.2,40.8,30.12,WSW,248,0.0,3.4,95,0.00,,,0.05,WUHU216HW,2013-01-13 02:29:00,
2013-01-12 21:33:00,42.2,40.6,30.12,SSW,203,1.1,1.3,94,0.00,,,0.05,WUHU216HW,2013-01-13 02:33:00,
2013-01-12 21:34:00,42.2,40.6,30.12,SSW,203,1.1,1.3,94,0.00,,,0.05,WUHU216HW,2013-01-13 02:34:00,
2013-01-12 21:38:00,42.2,40.6,30.12,South,180,0.0,1.3,94,0.00,,,0.05,WUHU216HW,2013-01-13 02:38:00,
2013-01-12 21:39:00,42.2,40.6,30.12,South,180,0.0,1.3,94,0.00,,,0.05,WUHU216HW,2013-01-13 02:39:00,
2013-01-12 21:40:00,42.2,40.6,30.12,South,180,0.0,1.3,94,0.00,,,0.05,WUHU216HW,2013-01-13 02:40:00,
2013-01-12 21:43:00,42.2,40.6,30.11,SSE,158,0.0,1.1,94,0.00,,,0.05,WUHU216HW,2013-01-13 02:43:00,
2013-01-12 21:44:00,42.2,40.6,30.11,SSE,158,0.0,1.1,94,0.00,,,0.05,WUHU216HW,2013-01-13 02:44:00,
2013-01-12 21:45:00,42.2,40.6,30.11,SSE,158,0.0,0.7,94,0.00,,,0.05,WUHU216HW,2013-01-13 02:45:00,
2013-01-12 21:49:00,42.2,40.6,30.12,SW,225,0.0,0.7,94,0.00,,,0.05,WUHU216HW,2013-01-13 02:49:00,
2013-01-12 21:50:00,42.2,40.6,30.12,SW,225,0.4,0.7,94,0.00,,,0.05,WUHU216HW,2013-01-13 02:50:00,
2013-01-12 21:54:00,42.2,40.6,30.12,SW,225,0.0,0.4,94,0.00,,,0.05,WUHU216HW,2013-01-13 02:54:00,
2013-01-12 21:55:00,42.2,40.6,30.12,SW,225,0.0,0.4,94,0.00,,,0.05,WUHU216HW,2013-01-13 02:55:00,
2013-01-12 21:59:00,42.2,40.6,30.12,SSW,203,1.1,2.0,94,0.00,,,0.05,WUHU216HW,2013-01-13 02:59:00,
2013-01-12 22:00:00,42.2,40.6,30.12,SW,225,0.7,2.0,94,0.00,,,0.05,WUHU216HW,2013-01-13 03:00:00,
2013-01-12 22:04:00,42.2,40.6,30.13,WSW,248,1.6,2.0,94,0.00,,,0.05,WUHU216HW,2013-01-13 03:04:00,
2013-01-12 22:05:00,42.2,40.6,30.12,West,270,1.6,2.0,94,0.00,,,0.05,WUHU216HW,2013-01-13 03:05:00,
2013-01-12 22:09:00,42.2,40.6,30.13,WNW,293,0.9,1.8,94,0.00,,,0.05,WUHU216HW,2013-01-13 03:09:00,
2013-01-12 22:10:00,42.2,40.6,30.13,WNW,293,0.7,1.8,94,0.00,,,0.05,WUHU216HW,2013-01-13 03:10:00,
2013-01-12 22:14:00,42.2,40.6,30.13,West,270,0.2,1.6,94,0.00,,,0.05,WUHU216HW,2013-01-13 03:14:00,
2013-01-12 22:15:00,42.2,40.6,30.12,SE,135,0.4,0.9,94,0.00,,,0.05,WUHU216HW,2013-01-13 03:15:00,
2013-01-12 22:19:00,42.2,40.8,30.12,SSE,158,1.1,1.1,95,0.00,,,0.05,WUHU216HW,2013-01-13 03:19:00,
2013-01-12 22:20:00,42.2,40.8,30.12,SSE,158,0.7,1.1,95,0.00,,,0.05,WUHU216HW,2013-01-13 03:20:00,
2013-01-12 22:21:00,42.2,40.8,30.12,SSE,158,0.7,1.1,95,0.00,,,0.05,WUHU216HW,2013-01-13 03:21:00,
2013-01-12 22:24:00,42.2,40.8,30.12,SE,135,0.9,1.1,95,0.00,,,0.05,WUHU216HW,2013-01-13 03:24:00,
2013-01-12 22:25:00,42.2,40.8,30.12,SE,135,0.4,1.1,95,0.00,,,0.05,WUHU216HW,2013-01-13 03:25:00,
2013-01-12 22:26:00,42.2,40.8,30.12,SE,135,0.0,1.1,95,0.00,,,0.05,WUHU216HW,2013-01-13 03:26:00,
2013-01-12 22:29:00,42.2,40.8,30.12,ENE,68,0.7,1.1,95,0.00,,,0.05,WUHU216HW,2013-01-13 03:29:00,
2013-01-12 22:30:00,42.2,40.6,30.12,NE,45,0.4,1.1,94,0.00,,,0.05,WUHU216HW,2013-01-13 03:30:00,
2013-01-12 22:31:00,42.2,40.6,30.12,NE,45,0.2,1.1,94,0.00,,,0.05,WUHU216HW,2013-01-13 03:31:00,
2013-01-12 22:34:00,42.2,40.8,30.12,NNE,23,0.0,0.7,95,0.00,,,0.05,WUHU216HW,2013-01-13 03:34:00,
2013-01-12 22:36:00,42.2,40.6,30.12,NNE,23,0.0,0.7,94,0.00,,,0.05,WUHU216HW,2013-01-13 03:36:00,
2013-01-12 22:40:00,42.2,40.8,30.13,NE,45,0.0,0.4,95,0.00,,,0.05,WUHU216HW,2013-01-13 03:40:00,
2013-01-12 22:41:00,42.0,40.4,30.13,NE,45,0.0,0.4,94,0.00,,,0.05,WUHU216HW,2013-01-13 03:41:00,
2013-01-12 22:45:00,42.0,40.4,30.13,SSE,158,1.8,1.8,94,0.00,,,0.05,WUHU216HW,2013-01-13 03:45:00,
2013-01-12 22:46:00,42.0,40.4,30.13,SSE,158,1.8,1.8,94,0.00,,,0.05,WUHU216HW,2013-01-13 03:46:00,
2013-01-12 22:47:00,42.0,40.4,30.13,SSE,158,1.3,1.8,94,0.00,,,0.05,WUHU216HW,2013-01-13 03:47:00,
2013-01-12 22:50:00,42.0,40.6,30.13,SE,135,0.9,1.8,95,0.00,,,0.05,WUHU216HW,2013-01-13 03:50:00,
2013-01-12 22:51:00,42.0,40.6,30.13,SE,135,0.9,1.8,95,0.00,,,0.05,WUHU216HW,2013-01-13 03:51:00,
2013-01-12 22:52:00,42.0,40.6,30.12,SSE,158,1.1,1.8,95,0.00,,,0.05,WUHU216HW,2013-01-13 03:52:00,
2013-01-12 22:55:00,42.0,40.6,30.12,SE,135,0.7,1.8,95,0.00,,,0.05,WUHU216HW,2013-01-13 03:55:00,
2013-01-12 22:56:00,42.0,40.6,30.12,SE,135,0.7,1.8,95,0.00,,,0.05,WUHU216HW,2013-01-13 03:56:00,
2013-01-12 22:57:00,42.0,40.6,30.12,SE,135,0.4,1.8,95,0.00,,,0.05,WUHU216HW,2013-01-13 03:57:00,
2013-01-12 23:00:00,42.0,40.6,30.12,SE,135,0.0,1.1,95,0.00,,,0.05,WUHU216HW,2013-01-13 04:00:00,
2013-01-12 23:01:00,42.0,40.6,30.12,ESE,113,0.7,1.1,95,0.00,,,0.05,WUHU216HW,2013-01-13 04:01:00,
2013-01-12 23:02:00,42.0,40.6,30.12,ESE,113,0.7,1.1,95,0.00,,,0.05,WUHU216HW,2013-01-13 04:02:00,
2013-01-12 23:05:00,42.0,40.6,30.12,ESE,113,0.0,1.1,95,0.00,,,0.05,WUHU216HW,2013-01-13 04:05:00,
2013-01-12 23:06:00,42.0,40.6,30.12,ESE,113,0.2,0.7,95,0.00,,,0.05,WUHU216HW,2013-01-13 04:06:00,
2013-01-12 23:07:00,42.0,40.6,30.12,SE,135,1.1,1.1,95,0.00,,,0.05,WUHU216HW,2013-01-13 04:07:00,
2013-01-12 23:11:00,42.0,40.6,30.12,SSW,203,0.7,1.3,95,0.00,,,0.05,WUHU216HW,2013-01-13 04:11:00,
2013-01-12 23:12:00,42.0,40.6,30.12,SW,225,0.4,1.3,95,0.00,,,0.05,WUHU216HW,2013-01-13 04:12:00,
2013-01-12 23:13:00,42.0,40.6,30.12,SW,225,0.4,1.3,95,0.00,,,0.05,WUHU216HW,2013-01-13 04:13:00,
2013-01-12 23:16:00,42.0,40.6,30.12,SW,225,0.0,1.3,95,0.00,,,0.05,WUHU216HW,2013-01-13 04:16:00,
2013-01-12 23:17:00,42.0,40.6,30.12,SW,225,0.0,1.3,95,0.00,,,0.05,WUHU216HW,2013-01-13 04:17:00,
2013-01-12 23:18:00,42.0,40.6,30.12,SW,225,0.0,1.1,95,0.00,,,0.05,WUHU216HW,2013-01-13 04:18:00,
2013-01-12 23:21:00,42.0,40.6,30.13,SW,225,1.3,1.3,95,0.00,,,0.05,WUHU216HW,2013-01-13 04:21:00,
2013-01-12 23:22:00,42.0,40.6,30.13,SW,225,0.9,1.3,95,0.00,,,0.05,WUHU216HW,2013-01-13 04:22:00,
2013-01-12 23:23:00,42.0,40.6,30.13,SW,225,0.9,1.3,95,0.00,,,0.05,WUHU216HW,2013-01-13 04:23:00,
2013-01-12 23:26:00,42.0,40.6,30.13,SSE,158,0.9,1.6,95,0.00,,,0.05,WUHU216HW,2013-01-13 04:26:00,
2013-01-12 23:27:00,42.0,40.6,30.13,SSE,158,0.9,1.6,95,0.00,,,0.05,WUHU216HW,2013-01-13 04:27:00,
2013-01-12 23:28:00,42.0,40.6,30.13,South,180,0.4,1.6,95,0.00,,,0.05,WUHU216HW,2013-01-13 04:28:00,
2013-01-12 23:32:00,42.0,40.6,30.13,SW,225,0.0,1.6,95,0.00,,,0.05,WUHU216HW,2013-01-13 04:32:00,
2013-01-12 23:33:00,42.0,40.6,30.13,SW,225,0.0,1.6,95,0.00,,,0.05,WUHU216HW,2013-01-13 04:33:00,
2013-01-12 23:37:00,42.0,40.6,30.14,SW,225,0.0,0.4,95,0.00,,,0.05,WUHU216HW,2013-01-13 04:37:00,
2013-01-12 23:38:00,42.0,40.6,30.13,SW,225,0.0,0.0,95,0.00,,,0.05,WUHU216HW,2013-01-13 04:38:00,
2013-01-12 23:42:00,42.0,40.6,30.14,SW,225,0.0,0.0,95,0.00,,,0.05,WUHU216HW,2013-01-13 04:42:00,
2013-01-12 23:43:00,42.0,40.6,30.14,SW,225,0.9,0.9,95,0.00,,,0.05,WUHU216HW,2013-01-13 04:43:00,
2013-01-12 23:44:00,42.0,40.6,30.14,SW,225,0.9,0.9,95,0.00,,,0.05,WUHU216HW,2013-01-13 04:44:00,
2013-01-12 23:47:00,42.0,40.6,30.14,SSW,203,0.0,0.9,95,0.00,,,0.05,WUHU216HW,2013-01-13 04:47:00,
2013-01-12 23:48:00,42.0,40.6,30.13,SSE,158,0.9,0.9,95,0.00,,,0.05,WUHU216HW,2013-01-13 04:48:00,
2013-01-12 23:49:00,42.0,40.6,30.13,SSW,203,0.9,0.9,95,0.00,,,0.05,WUHU216HW,2013-01-13 04:49:00,
2013-01-12 23:52:00,42.0,40.6,30.14,SSW,203,0.4,0.9,95,0.00,,,0.05,WUHU216HW,2013-01-13 04:52:00,
2013-01-12 23:53:00,42.0,40.6,30.14,SSW,203,0.4,0.9,95,0.00,,,0.05,WUHU216HW,2013-01-13 04:53:00,
2013-01-12 23:54:00,42.0,40.6,30.14,SSW,203,0.4,0.9,95,0.00,,,0.05,WUHU216HW,2013-01-13 04:54:00,
2013-01-12 23:57:00,42.0,40.6,30.14,West,270,1.3,1.3,95,0.00,,,0.05,WUHU216HW,2013-01-13 04:57:00,
2013-01-12 23:58:00,42.0,40.6,30.14,SW,225,0.9,1.3,95,0.00,,,0.05,WUHU216HW,2013-01-13 04:58:00,
2013-01-12 23:59:00,42.0,40.6,30.14,SW,225,1.1,1.3,95,0.00,,,0.05,WUHU216HW,2013-01-13 04:59:00,